Wetterdaten: Samstag, 21.12.2019
Datum Zeit Temp. Aussen Temp. o. S. Temp +5cm Feuchte Auss Luftdruck Regen Sonnenschein Regendauer Solar Windben Empfang
21.12.2019 00:00 7,8 C 7,2 C 6,1 C 86 % 991,2 hPa 0,0 l/m 0 min 0 min 0 W/m 16,1 km/h (3 Bft) 97,92 %
21.12.2019 00:02 7,8 C 7,2 C 6,1 C 86 % 991,2 hPa 0,0 l/m 0 min 0 min 0 W/m 16,1 km/h (3 Bft) 95,00 %
21.12.2019 00:04 7,8 C 6,7 C 6,1 C 86 % 991,3 hPa 0,0 l/m 0 min 0 min 0 W/m 12,9 km/h (3 Bft) 97,87 %
21.12.2019 00:08 7,8 C 6,7 C 6,1 C 86 % 991,3 hPa 0,0 l/m 0 min 0 min 0 W/m 19,3 km/h (3 Bft) 97,85 %
21.12.2019 00:10 7,8 C 7,2 C 6,1 C 86 % 991,3 hPa 0,0 l/m 0 min 0 min 0 W/m 16,1 km/h (3 Bft) 97,87 %
21.12.2019 00:12 7,8 C 6,7 C 6,1 C 86 % 991,4 hPa 0,0 l/m 0 min 0 min 0 W/m 19,3 km/h (3 Bft) 97,62 %
21.12.2019 00:14 7,8 C 6,7 C 6,1 C 86 % 991,4 hPa 0,0 l/m 0 min 0 min 0 W/m 16,1 km/h (3 Bft) 97,92 %
21.12.2019 00:16 7,8 C 6,7 C 6,1 C 86 % 991,5 hPa 0,0 l/m 0 min 0 min 0 W/m 19,3 km/h (3 Bft) 95,83 %
21.12.2019 00:18 7,7 C 6,7 C 6,1 C 87 % 991,4 hPa 0,0 l/m 0 min 0 min 0 W/m 16,1 km/h (3 Bft) 97,87 %
21.12.2019 00:20 7,7 C 6,7 C 6,1 C 86 % 991,5 hPa 0,0 l/m 0 min 0 min 0 W/m 19,3 km/h (3 Bft) 97,92 %
21.12.2019 00:22 7,7 C 6,7 C 6,1 C 86 % 991,5 hPa 0,0 l/m 0 min 0 min 0 W/m 16,1 km/h (3 Bft) 97,87 %
21.12.2019 00:24 7,7 C 6,7 C 6,1 C 87 % 991,5 hPa 0,0 l/m 0 min 0 min 0 W/m 12,9 km/h (3 Bft) 93,62 %
21.12.2019 00:26 7,7 C 6,7 C 6,1 C 87 % 991,6 hPa 0,0 l/m 0 min 0 min 0 W/m 12,9 km/h (3 Bft) 97,92 %
21.12.2019 00:28 7,7 C 6,7 C 6,1 C 87 % 991,6 hPa 0,0 l/m 0 min 0 min 0 W/m 12,9 km/h (3 Bft) 97,83 %
21.12.2019 00:30 7,7 C 6,7 C 6,1 C 87 % 991,6 hPa 0,0 l/m 0 min 0 min 0 W/m 16,1 km/h (3 Bft) 97,92 %
21.12.2019 00:32 7,7 C 6,7 C 6,1 C 87 % 991,6 hPa 0,0 l/m 0 min 0 min 0 W/m 6,4 km/h (2 Bft) 97,87 %
21.12.2019 00:34 7,7 C 6,7 C 6,1 C 87 % 991,6 hPa 0,0 l/m 0 min 0 min 0 W/m 12,9 km/h (3 Bft) 97,87 %
21.12.2019 00:36 7,6 C 6,7 C 5,6 C 87 % 991,6 hPa 0,0 l/m 0 min 0 min 0 W/m 12,9 km/h (3 Bft) 97,87 %
21.12.2019 00:38 7,6 C 6,7 C 5,6 C 87 % 991,6 hPa 0,0 l/m 0 min 0 min 0 W/m 12,9 km/h (3 Bft) 97,92 %
21.12.2019 00:40 7,6 C 6,7 C 5,6 C 87 % 991,7 hPa 0,0 l/m 0 min 0 min 0 W/m 12,9 km/h (3 Bft) 95,65 %
21.12.2019 00:42 7,6 C 6,7 C 5,6 C 87 % 991,7 hPa 0,0 l/m 0 min 0 min 0 W/m 16,1 km/h (3 Bft) 97,92 %
21.12.2019 00:44 7,6 C 6,7 C 5,6 C 87 % 991,6 hPa 0,0 l/m 0 min 0 min 0 W/m 16,1 km/h (3 Bft) 100,00 %
21.12.2019 00:46 7,5 C 6,7 C 5,6 C 87 % 991,7 hPa 0,0 l/m 0 min 0 min 0 W/m 16,1 km/h (3 Bft) 100,00 %
21.12.2019 00:48 7,5 C 6,1 C 5,6 C 87 % 991,6 hPa 0,0 l/m 0 min 0 min 0 W/m 6,4 km/h (2 Bft) 100,00 %
21.12.2019 00:50 7,5 C 6,1 C 5,6 C 87 % 991,6 hPa 0,0 l/m 0 min 0 min 0 W/m 16,1 km/h (3 Bft) 97,87 %
21.12.2019 00:52 7,4 C 6,1 C 5,6 C 87 % 991,6 hPa 0,0 l/m 0 min 0 min 0 W/m 16,1 km/h (3 Bft) 100,00 %
21.12.2019 00:54 7,4 C 6,1 C 5,6 C 87 % 991,6 hPa 0,0 l/m 0 min 0 min 0 W/m 12,9 km/h (3 Bft) 100,00 %
21.12.2019 00:56 7,4 C 6,7 C 5,6 C 88 % 991,6 hPa 0,0 l/m 0 min 0 min 0 W/m 12,9 km/h (3 Bft) 100,00 %
21.12.2019 00:58 7,4 C 6,7 C 5,6 C 88 % 991,6 hPa 0,0 l/m 0 min 0 min 0 W/m 12,9 km/h (3 Bft) 100,00 %
21.12.2019 01:00 7,3 C 6,7 C 5,6 C 88 % 991,5 hPa 0,0 l/m 0 min 0 min 0 W/m 12,9 km/h (3 Bft) 98,33 %
21.12.2019 01:02 7,3 C 6,7 C 5,6 C 88 % 991,5 hPa 0,0 l/m 0 min 0 min 0 W/m 12,9 km/h (3 Bft) 100,00 %
21.12.2019 01:04 7,3 C 6,7 C 6,1 C 88 % 991,5 hPa 0,0 l/m 0 min 0 min 0 W/m 16,1 km/h (3 Bft) 100,00 %
21.12.2019 01:06 7,3 C 6,7 C 6,1 C 88 % 991,6 hPa 0,0 l/m 0 min 0 min 0 W/m 16,1 km/h (3 Bft) 100,00 %
21.12.2019 01:08 7,3 C 6,7 C 6,1 C 88 % 991,6 hPa 0,0 l/m 0 min 0 min 0 W/m 16,1 km/h (3 Bft) 100,00 %
21.12.2019 01:10 7,3 C 6,7 C 6,1 C 89 % 991,6 hPa 0,0 l/m 0 min 0 min 0 W/m 19,3 km/h (3 Bft) 100,00 %
21.12.2019 01:12 7,3 C 6,7 C 6,1 C 89 % 991,5 hPa 0,0 l/m 0 min 0 min 0 W/m 16,1 km/h (3 Bft) 97,87 %
21.12.2019 01:14 7,3 C 6,7 C 6,1 C 89 % 991,5 hPa 0,0 l/m 0 min 0 min 0 W/m 16,1 km/h (3 Bft) 97,92 %
21.12.2019 01:16 7,3 C 6,7 C 6,1 C 89 % 991,6 hPa 0,0 l/m 0 min 0 min 0 W/m 19,3 km/h (3 Bft) 97,87 %
21.12.2019 01:18 7,3 C 7,2 C 6,1 C 89 % 991,6 hPa 0,0 l/m 0 min 0 min 0 W/m 19,3 km/h (3 Bft) 97,87 %
21.12.2019 01:20 7,4 C 7,2 C 6,1 C 89 % 991,7 hPa 0,0 l/m 0 min 0 min 0 W/m 16,1 km/h (3 Bft) 95,83 %
21.12.2019 01:22 7,4 C 7,2 C 6,1 C 89 % 991,6 hPa 0,0 l/m 0 min 0 min 0 W/m 16,1 km/h (3 Bft) 95,83 %
21.12.2019 01:24 7,4 C 7,2 C 6,7 C 89 % 991,6 hPa 0,0 l/m 0 min 0 min 0 W/m 16,1 km/h (3 Bft) 97,87 %
21.12.2019 01:26 7,4 C 7,2 C 6,7 C 89 % 991,6 hPa 0,0 l/m 0 min 0 min 0 W/m 16,1 km/h (3 Bft) 97,83 %
21.12.2019 01:28 7,4 C 7,2 C 6,7 C 89 % 991,6 hPa 0,0 l/m 0 min 0 min 0 W/m 12,9 km/h (3 Bft) 95,83 %
21.12.2019 01:30 7,5 C 7,2 C 6,7 C 89 % 991,6 hPa 0,0 l/m 0 min 0 min 0 W/m 19,3 km/h (3 Bft) 93,75 %
21.12.2019 01:32 7,5 C 7,2 C 6,7 C 89 % 991,5 hPa 0,0 l/m 0 min 0 min 0 W/m 16,1 km/h (3 Bft) 95,74 %
21.12.2019 01:34 7,5 C 7,2 C 6,1 C 89 % 991,6 hPa 0,0 l/m 0 min 0 min 0 W/m 19,3 km/h (3 Bft) 97,92 %
21.12.2019 01:36 7,6 C 7,2 C 6,1 C 89 % 991,6 hPa 0,0 l/m 0 min 0 min 0 W/m 16,1 km/h (3 Bft) 97,87 %
21.12.2019 01:38 7,6 C 6,7 C 6,1 C 89 % 991,6 hPa 0,0 l/m 0 min 0 min 0 W/m 16,1 km/h (3 Bft) 95,74 %
21.12.2019 01:40 7,6 C 6,7 C 6,1 C 89 % 991,6 hPa 0,0 l/m 0 min 0 min 0 W/m 19,3 km/h (3 Bft) 95,74 %
21.12.2019 01:42 7,6 C 6,7 C 6,1 C 89 % 991,7 hPa 0,0 l/m 0 min 0 min 0 W/m 16,1 km/h (3 Bft) 93,75 %
21.12.2019 01:44 7,6 C 6,7 C 6,1 C 89 % 991,7 hPa 0,0 l/m 0 min 0 min 0 W/m 22,5 km/h (4 Bft) 93,75 %
21.12.2019 01:46 7,6 C 6,7 C 6,1 C 89 % 991,7 hPa 0,0 l/m 0 min 0 min 0 W/m 22,5 km/h (4 Bft) 95,74 %
21.12.2019 01:48 7,6 C 7,2 C 6,1 C 89 % 991,7 hPa 0,0 l/m 0 min 0 min 0 W/m 19,3 km/h (3 Bft) 95,65 %
21.12.2019 01:50 7,6 C 7,2 C 6,1 C 89 % 991,8 hPa 0,0 l/m 0 min 0 min 0 W/m 16,1 km/h (3 Bft) 95,74 %
21.12.2019 01:52 7,6 C 7,2 C 6,1 C 89 % 991,7 hPa 0,0 l/m 0 min 0 min 0 W/m 16,1 km/h (3 Bft) 95,74 %
21.12.2019 01:54 7,6 C 7,2 C 6,1 C 89 % 991,8 hPa 0,0 l/m 0 min 0 min 0 W/m 12,9 km/h (3 Bft) 95,74 %
21.12.2019 01:56 7,6 C 6,7 C 6,1 C 89 % 991,9 hPa 0,0 l/m 0 min 0 min 0 W/m 3,2 km/h (1 Bft) 94,44 %
21.12.2019 01:58 7,6 C 7,2 C 6,1 C 89 % 991,9 hPa 0,0 l/m 0 min 0 min 0 W/m 19,3 km/h (3 Bft) 97,87 %
21.12.2019 02:00 7,6 C 7,2 C 6,7 C 89 % 991,9 hPa 0,0 l/m 0 min 0 min 0 W/m 19,3 km/h (3 Bft) 97,92 %
21.12.2019 02:02 7,6 C 7,2 C 6,7 C 89 % 991,9 hPa 0,0 l/m 0 min 0 min 0 W/m 19,3 km/h (3 Bft) 97,83 %
21.12.2019 02:04 7,6 C 7,2 C 6,7 C 89 % 991,9 hPa 0,0 l/m 0 min 0 min 0 W/m 19,3 km/h (3 Bft) 95,92 %
21.12.2019 02:06 7,6 C 7,2 C 6,7 C 89 % 992,0 hPa 0,0 l/m 0 min 0 min 0 W/m 6,4 km/h (2 Bft) 97,87 %
21.12.2019 02:08 7,7 C 7,2 C 6,7 C 89 % 992,0 hPa 0,0 l/m 0 min 0 min 0 W/m 16,1 km/h (3 Bft) 97,87 %
21.12.2019 02:10 7,7 C 7,2 C 6,7 C 89 % 992,0 hPa 0,0 l/m 0 min 0 min 0 W/m 22,5 km/h (4 Bft) 97,87 %
21.12.2019 02:12 7,7 C 7,2 C 6,7 C 89 % 992,0 hPa 0,0 l/m 0 min 0 min 0 W/m 19,3 km/h (3 Bft) 95,74 %
21.12.2019 02:14 7,7 C 7,2 C 6,7 C 89 % 992,1 hPa 0,0 l/m 0 min 0 min 0 W/m 16,1 km/h (3 Bft) 97,83 %
21.12.2019 02:16 7,7 C 7,2 C 6,7 C 89 % 992,0 hPa 0,0 l/m 0 min 0 min 0 W/m 12,9 km/h (3 Bft) 97,62 %
21.12.2019 02:18 7,7 C 7,2 C 6,7 C 88 % 992,0 hPa 0,0 l/m 0 min 0 min 0 W/m 25,7 km/h (4 Bft) 97,92 %
21.12.2019 02:20 7,8 C 7,2 C 6,7 C 88 % 992,0 hPa 0,0 l/m 0 min 0 min 0 W/m 16,1 km/h (3 Bft) 97,92 %
21.12.2019 02:22 7,8 C 7,2 C 6,7 C 88 % 992,0 hPa 0,0 l/m 0 min 0 min 0 W/m 19,3 km/h (3 Bft) 97,87 %
21.12.2019 02:24 7,8 C 7,2 C 6,7 C 88 % 992,0 hPa 0,0 l/m 0 min 0 min 0 W/m 12,9 km/h (3 Bft) 100,00 %
21.12.2019 02:26 7,8 C 7,2 C 6,7 C 88 % 992,1 hPa 0,0 l/m 0 min 0 min 0 W/m 16,1 km/h (3 Bft) 100,00 %
21.12.2019 02:28 7,8 C 7,2 C 6,7 C 88 % 992,1 hPa 0,0 l/m 0 min 0 min 0 W/m 19,3 km/h (3 Bft) 100,00 %
21.12.2019 02:30 7,8 C 7,2 C 6,7 C 88 % 992,1 hPa 0,0 l/m 0 min 0 min 0 W/m 19,3 km/h (3 Bft) 97,92 %
21.12.2019 02:32 7,8 C 7,2 C 6,7 C 88 % 992,2 hPa 0,0 l/m 0 min 0 min 0 W/m 16,1 km/h (3 Bft) 100,00 %
21.12.2019 02:34 7,8 C 7,2 C 6,7 C 88 % 992,2 hPa 0,0 l/m 0 min 0 min 0 W/m 19,3 km/h (3 Bft) 100,00 %
21.12.2019 02:36 7,8 C 7,2 C 6,7 C 88 % 992,2 hPa 0,0 l/m 0 min 0 min 0 W/m 12,9 km/h (3 Bft) 100,00 %
21.12.2019 02:38 7,8 C 7,2 C 6,1 C 88 % 992,2 hPa 0,0 l/m 0 min 0 min 0 W/m 12,9 km/h (3 Bft) 100,00 %
21.12.2019 02:40 7,8 C 7,2 C 6,1 C 88 % 992,2 hPa 0,0 l/m 0 min 0 min 0 W/m 12,9 km/h (3 Bft) 97,87 %
21.12.2019 02:42 7,8 C 6,7 C 6,1 C 88 % 992,2 hPa 0,0 l/m 0 min 0 min 0 W/m 12,9 km/h (3 Bft) 100,00 %
21.12.2019 02:44 7,8 C 6,7 C 6,1 C 88 % 992,2 hPa 0,0 l/m 0 min 0 min 0 W/m 16,1 km/h (3 Bft) 100,00 %
21.12.2019 02:46 7,8 C 6,7 C 6,1 C 88 % 992,2 hPa 0,0 l/m 0 min 0 min 0 W/m 16,1 km/h (3 Bft) 97,87 %
21.12.2019 02:48 7,8 C 6,7 C 6,1 C 88 % 992,1 hPa 0,0 l/m 0 min 0 min 0 W/m 16,1 km/h (3 Bft) 97,87 %
21.12.2019 02:50 7,8 C 6,7 C 6,1 C 88 % 992,2 hPa 0,0 l/m 0 min 0 min 0 W/m 16,1 km/h (3 Bft) 97,87 %
21.12.2019 02:52 7,7 C 6,7 C 6,1 C 88 % 992,2 hPa 0,0 l/m 0 min 0 min 0 W/m 12,9 km/h (3 Bft) 100,00 %
21.12.2019 02:54 7,7 C 6,7 C 6,1 C 88 % 992,2 hPa 0,0 l/m 0 min 0 min 0 W/m 6,4 km/h (2 Bft) 100,00 %
21.12.2019 02:56 7,7 C 6,7 C 6,1 C 87 % 992,2 hPa 0,0 l/m 0 min 0 min 0 W/m 12,9 km/h (3 Bft) 100,00 %
21.12.2019 02:58 7,7 C 6,7 C 6,1 C 88 % 992,2 hPa 0,0 l/m 0 min 0 min 0 W/m 16,1 km/h (3 Bft) 100,00 %
21.12.2019 03:00 7,7 C 6,7 C 6,1 C 88 % 992,2 hPa 0,0 l/m 0 min 0 min 0 W/m 16,1 km/h (3 Bft) 100,00 %
21.12.2019 03:02 7,7 C 6,7 C 6,1 C 88 % 992,2 hPa 0,0 l/m 0 min 0 min 0 W/m 19,3 km/h (3 Bft) 97,56 %
21.12.2019 03:04 7,6 C 6,7 C 6,1 C 88 % 992,2 hPa 0,0 l/m 0 min 0 min 0 W/m 16,1 km/h (3 Bft) 100,00 %
21.12.2019 03:06 7,6 C 6,7 C 6,1 C 88 % 992,3 hPa 0,0 l/m 0 min 0 min 0 W/m 16,1 km/h (3 Bft) 100,00 %
21.12.2019 03:08 7,6 C 6,7 C 6,1 C 88 % 992,2 hPa 0,0 l/m 0 min 0 min 0 W/m 16,1 km/h (3 Bft) 100,00 %
21.12.2019 03:10 7,6 C 6,7 C 6,1 C 88 % 992,3 hPa 0,0 l/m 0 min 0 min 0 W/m 12,9 km/h (3 Bft) 100,00 %
21.12.2019 03:12 7,6 C 6,7 C 6,1 C 88 % 992,3 hPa 0,0 l/m 0 min 0 min 0 W/m 16,1 km/h (3 Bft) 97,87 %
21.12.2019 03:14 7,6 C 6,7 C 6,1 C 88 % 992,3 hPa 0,0 l/m 0 min 0 min 0 W/m 12,9 km/h (3 Bft) 97,87 %
21.12.2019 03:16 7,6 C 6,7 C 6,1 C 88 % 992,3 hPa 0,0 l/m 0 min 0 min 0 W/m 12,9 km/h (3 Bft) 97,87 %
21.12.2019 03:18 7,6 C 6,7 C 6,1 C 88 % 992,3 hPa 0,0 l/m 0 min 0 min 0 W/m 12,9 km/h (3 Bft) 97,87 %
21.12.2019 03:20 7,6 C 6,7 C 6,1 C 88 % 992,4 hPa 0,0 l/m 0 min 0 min 0 W/m 6,4 km/h (2 Bft) 97,87 %
21.12.2019 03:22 7,6 C 6,7 C 6,1 C 88 % 992,3 hPa 0,0 l/m 0 min 0 min 0 W/m 16,1 km/h (3 Bft) 100,00 %
21.12.2019 03:24 7,6 C 6,7 C 6,1 C 88 % 992,3 hPa 0,0 l/m 0 min 0 min 0 W/m 12,9 km/h (3 Bft) 95,83 %
21.12.2019 03:26 7,6 C 6,7 C 6,1 C 88 % 992,3 hPa 0,0 l/m 0 min 0 min 0 W/m 16,1 km/h (3 Bft) 93,62 %
21.12.2019 03:28 7,6 C 6,7 C 6,1 C 88 % 992,3 hPa 0,0 l/m 0 min 0 min 0 W/m 16,1 km/h (3 Bft) 93,62 %
21.12.2019 03:30 7,6 C 6,7 C 6,1 C 88 % 992,3 hPa 0,0 l/m 0 min 0 min 0 W/m 12,9 km/h (3 Bft) 97,92 %
21.12.2019 03:32 7,5 C 6,7 C 6,1 C 88 % 992,4 hPa 0,0 l/m 0 min 0 min 0 W/m 16,1 km/h (3 Bft) 97,87 %
21.12.2019 03:34 7,5 C 6,7 C 6,1 C 88 % 992,4 hPa 0,0 l/m 0 min 0 min 0 W/m 12,9 km/h (3 Bft) 97,87 %
21.12.2019 03:36 7,5 C 6,7 C 6,1 C 88 % 992,3 hPa 0,0 l/m 0 min 0 min 0 W/m 6,4 km/h (2 Bft) 97,22 %
21.12.2019 03:38 7,5 C 6,7 C 6,1 C 88 % 992,4 hPa 0,0 l/m 0 min 0 min 0 W/m 16,1 km/h (3 Bft) 97,92 %
21.12.2019 03:40 7,5 C 6,7 C 6,1 C 88 % 992,4 hPa 0,0 l/m 0 min 0 min 0 W/m 12,9 km/h (3 Bft) 97,92 %
21.12.2019 03:42 7,5 C 6,7 C 6,1 C 88 % 992,4 hPa 0,0 l/m 0 min 0 min 0 W/m 12,9 km/h (3 Bft) 97,87 %
21.12.2019 03:44 7,5 C 6,7 C 6,1 C 89 % 992,5 hPa 0,0 l/m 0 min 0 min 0 W/m 6,4 km/h (2 Bft) 95,83 %
21.12.2019 03:46 7,5 C 6,7 C 6,1 C 89 % 992,4 hPa 0,0 l/m 0 min 0 min 0 W/m 16,1 km/h (3 Bft) 97,87 %
21.12.2019 03:48 7,5 C 6,7 C 6,1 C 89 % 992,4 hPa 0,0 l/m 0 min 0 min 0 W/m 12,9 km/h (3 Bft) 100,00 %
21.12.2019 03:50 7,4 C 6,7 C 6,1 C 89 % 992,4 hPa 0,0 l/m 0 min 0 min 0 W/m 16,1 km/h (3 Bft) 97,87 %
21.12.2019 03:52 7,4 C 6,7 C 6,1 C 89 % 992,4 hPa 0,0 l/m 0 min 0 min 0 W/m 16,1 km/h (3 Bft) 95,74 %
21.12.2019 03:54 7,4 C 6,7 C 6,1 C 89 % 992,4 hPa 0,0 l/m 0 min 0 min 0 W/m 12,9 km/h (3 Bft) 95,83 %
21.12.2019 03:56 7,4 C 6,1 C 5,6 C 89 % 992,5 hPa 0,0 l/m 0 min 0 min 0 W/m 16,1 km/h (3 Bft) 93,75 %
21.12.2019 03:58 7,4 C 6,1 C 5,6 C 89 % 992,4 hPa 0,0 l/m 0 min 0 min 0 W/m 16,1 km/h (3 Bft) 93,75 %
21.12.2019 04:00 7,4 C 6,1 C 5,6 C 89 % 992,4 hPa 0,0 l/m 0 min 0 min 0 W/m 12,9 km/h (3 Bft) 95,74 %
21.12.2019 04:02 7,3 C 6,1 C 5,6 C 89 % 992,4 hPa 0,0 l/m 0 min 0 min 0 W/m 12,9 km/h (3 Bft) 93,94 %
21.12.2019 04:04 7,3 C 6,1 C 5,6 C 89 % 992,4 hPa 0,0 l/m 0 min 0 min 0 W/m 19,3 km/h (3 Bft) 92,86 %
21.12.2019 04:06 7,3 C 6,1 C 5,6 C 89 % 992,4 hPa 0,0 l/m 0 min 0 min 0 W/m 16,1 km/h (3 Bft) 91,67 %
21.12.2019 04:08 7,3 C 6,1 C 5,6 C 89 % 992,4 hPa 0,0 l/m 0 min 0 min 0 W/m 16,1 km/h (3 Bft) 93,75 %
21.12.2019 04:10 7,2 C 6,1 C 5,6 C 89 % 992,4 hPa 0,0 l/m 0 min 0 min 0 W/m 12,9 km/h (3 Bft) 95,74 %
21.12.2019 04:12 7,2 C 6,1 C 5,6 C 89 % 992,4 hPa 0,0 l/m 0 min 0 min 0 W/m 12,9 km/h (3 Bft) 93,75 %
21.12.2019 04:14 7,2 C 6,1 C 5,6 C 89 % 992,4 hPa 0,0 l/m 0 min 0 min 0 W/m 12,9 km/h (3 Bft) 93,75 %
21.12.2019 04:16 7,2 C 6,1 C 5,6 C 89 % 992,4 hPa 0,0 l/m 0 min 0 min 0 W/m 12,9 km/h (3 Bft) 95,83 %
21.12.2019 04:18 7,1 C 6,1 C 5,6 C 89 % 992,4 hPa 0,0 l/m 0 min 0 min 0 W/m 12,9 km/h (3 Bft) 93,75 %
21.12.2019 04:20 7,1 C 6,1 C 5,6 C 89 % 992,5 hPa 0,0 l/m 0 min 0 min 0 W/m 12,9 km/h (3 Bft) 94,44 %
21.12.2019 04:22 7,1 C 6,1 C 5,6 C 89 % 992,4 hPa 0,0 l/m 0 min 0 min 0 W/m 6,4 km/h (2 Bft) 95,74 %
21.12.2019 04:24 7,1 C 6,1 C 5,6 C 89 % 992,4 hPa 0,0 l/m 0 min 0 min 0 W/m 12,9 km/h (3 Bft) 91,67 %
21.12.2019 04:26 7,1 C 6,1 C 5,0 C 89 % 992,5 hPa 0,0 l/m 0 min 0 min 0 W/m 12,9 km/h (3 Bft) 95,74 %
21.12.2019 04:28 7,0 C 6,1 C 5,6 C 89 % 992,4 hPa 0,0 l/m 0 min 0 min 0 W/m 16,1 km/h (3 Bft) 95,83 %
21.12.2019 04:30 7,0 C 6,1 C 5,6 C 89 % 992,4 hPa 0,0 l/m 0 min 0 min 0 W/m 12,9 km/h (3 Bft) 93,62 %
21.12.2019 04:32 7,0 C 6,1 C 5,6 C 89 % 992,4 hPa 0,0 l/m 0 min 0 min 0 W/m 16,1 km/h (3 Bft) 93,62 %
21.12.2019 04:34 7,0 C 6,1 C 5,6 C 90 % 992,4 hPa 0,0 l/m 0 min 0 min 0 W/m 6,4 km/h (2 Bft) 93,48 %
21.12.2019 04:36 6,9 C 6,1 C 5,6 C 90 % 992,4 hPa 0,0 l/m 0 min 0 min 0 W/m 12,9 km/h (3 Bft) 95,24 %
21.12.2019 04:38 6,9 C 6,1 C 5,6 C 90 % 992,4 hPa 0,0 l/m 0 min 0 min 0 W/m 16,1 km/h (3 Bft) 95,83 %
21.12.2019 04:40 6,9 C 6,1 C 5,6 C 90 % 992,4 hPa 0,0 l/m 0 min 0 min 0 W/m 16,1 km/h (3 Bft) 97,92 %
21.12.2019 04:42 6,9 C 6,1 C 5,6 C 90 % 992,5 hPa 0,0 l/m 0 min 0 min 0 W/m 16,1 km/h (3 Bft) 97,87 %
21.12.2019 04:44 6,9 C 6,7 C 5,6 C 90 % 992,5 hPa 0,0 l/m 0 min 0 min 0 W/m 16,1 km/h (3 Bft) 95,83 %
21.12.2019 04:46 6,9 C 6,7 C 5,6 C 90 % 992,5 hPa 0,0 l/m 0 min 0 min 0 W/m 19,3 km/h (3 Bft) 95,74 %
21.12.2019 04:48 7,0 C 6,7 C 5,6 C 90 % 992,5 hPa 0,0 l/m 0 min 0 min 0 W/m 16,1 km/h (3 Bft) 97,87 %
21.12.2019 04:50 7,0 C 6,7 C 5,6 C 90 % 992,4 hPa 0,0 l/m 0 min 0 min 0 W/m 19,3 km/h (3 Bft) 97,92 %
21.12.2019 04:52 7,0 C 6,7 C 5,6 C 90 % 992,4 hPa 0,0 l/m 0 min 0 min 0 W/m 16,1 km/h (3 Bft) 95,74 %
21.12.2019 04:54 7,0 C 6,7 C 5,6 C 90 % 992,4 hPa 0,0 l/m 0 min 0 min 0 W/m 12,9 km/h (3 Bft) 95,74 %
21.12.2019 04:56 7,0 C 6,1 C 5,6 C 90 % 992,4 hPa 0,0 l/m 0 min 0 min 0 W/m 12,9 km/h (3 Bft) 97,83 %
21.12.2019 04:58 7,0 C 6,1 C 5,6 C 90 % 992,4 hPa 0,0 l/m 0 min 0 min 0 W/m 12,9 km/h (3 Bft) 97,87 %
21.12.2019 05:00 7,0 C 6,1 C 5,6 C 90 % 992,3 hPa 0,0 l/m 0 min 0 min 0 W/m 16,1 km/h (3 Bft) 95,74 %
21.12.2019 05:02 7,0 C 6,1 C 5,6 C 90 % 992,3 hPa 0,0 l/m 0 min 0 min 0 W/m 12,9 km/h (3 Bft) 97,56 %
21.12.2019 05:04 7,0 C 6,1 C 5,6 C 90 % 992,3 hPa 0,0 l/m 0 min 0 min 0 W/m 12,9 km/h (3 Bft) 100,00 %
21.12.2019 05:06 7,0 C 6,1 C 5,6 C 90 % 992,3 hPa 0,0 l/m 0 min 0 min 0 W/m 12,9 km/h (3 Bft) 100,00 %
21.12.2019 05:08 7,0 C 6,1 C 5,6 C 90 % 992,3 hPa 0,0 l/m 0 min 0 min 0 W/m 6,4 km/h (2 Bft) 97,87 %
21.12.2019 05:10 7,0 C 6,1 C 5,6 C 90 % 992,3 hPa 0,0 l/m 0 min 0 min 0 W/m 12,9 km/h (3 Bft) 100,00 %
21.12.2019 05:12 6,9 C 6,1 C 5,0 C 90 % 992,3 hPa 0,0 l/m 0 min 0 min 0 W/m 6,4 km/h (2 Bft) 100,00 %
21.12.2019 05:14 6,9 C 6,1 C 5,0 C 90 % 992,2 hPa 0,0 l/m 0 min 0 min 0 W/m 16,1 km/h (3 Bft) 100,00 %
21.12.2019 05:16 6,9 C 6,1 C 5,0 C 90 % 992,3 hPa 0,0 l/m 0 min 0 min 0 W/m 12,9 km/h (3 Bft) 100,00 %
21.12.2019 05:18 6,9 C 5,6 C 5,0 C 90 % 992,2 hPa 0,0 l/m 0 min 0 min 0 W/m 6,4 km/h (2 Bft) 100,00 %
21.12.2019 05:20 6,9 C 5,6 C 5,0 C 90 % 992,2 hPa 0,0 l/m 0 min 0 min 0 W/m 12,9 km/h (3 Bft) 100,00 %
21.12.2019 05:22 6,9 C 5,6 C 5,0 C 90 % 992,2 hPa 0,0 l/m 0 min 0 min 0 W/m 12,9 km/h (3 Bft) 100,00 %
21.12.2019 05:24 6,8 C 5,6 C 5,0 C 90 % 992,2 hPa 0,0 l/m 0 min 0 min 0 W/m 16,1 km/h (3 Bft) 100,00 %
21.12.2019 05:26 6,8 C 5,6 C 5,0 C 90 % 992,2 hPa 0,0 l/m 0 min 0 min 0 W/m 12,9 km/h (3 Bft) 100,00 %
21.12.2019 05:28 6,8 C 5,6 C 5,0 C 90 % 992,2 hPa 0,0 l/m 0 min 0 min 0 W/m 6,4 km/h (2 Bft) 97,92 %
21.12.2019 05:30 6,8 C 5,6 C 4,4 C 90 % 992,2 hPa 0,0 l/m 0 min 0 min 0 W/m 16,1 km/h (3 Bft) 100,00 %
21.12.2019 05:32 6,7 C 5,6 C 4,4 C 90 % 992,2 hPa 0,0 l/m 0 min 0 min 0 W/m 12,9 km/h (3 Bft) 100,00 %
21.12.2019 05:34 6,7 C 5,6 C 4,4 C 90 % 992,2 hPa 0,0 l/m 0 min 0 min 0 W/m 16,1 km/h (3 Bft) 100,00 %
21.12.2019 05:36 6,7 C 5,0 C 4,4 C 90 % 992,2 hPa 0,0 l/m 0 min 0 min 0 W/m 16,1 km/h (3 Bft) 97,92 %
21.12.2019 05:38 6,6 C 5,0 C 4,4 C 90 % 992,2 hPa 0,0 l/m 0 min 0 min 0 W/m 12,9 km/h (3 Bft) 100,00 %
21.12.2019 05:40 6,6 C 5,0 C 4,4 C 90 % 992,1 hPa 0,0 l/m 0 min 0 min 0 W/m 12,9 km/h (3 Bft) 100,00 %
21.12.2019 05:42 6,5 C 5,0 C 4,4 C 90 % 992,1 hPa 0,0 l/m 0 min 0 min 0 W/m 12,9 km/h (3 Bft) 97,83 %
21.12.2019 05:44 6,5 C 5,0 C 4,4 C 90 % 992,1 hPa 0,0 l/m 0 min 0 min 0 W/m 12,9 km/h (3 Bft) 100,00 %
21.12.2019 05:46 6,4 C 5,0 C 4,4 C 90 % 992,1 hPa 0,0 l/m 0 min 0 min 0 W/m 6,4 km/h (2 Bft) 100,00 %
21.12.2019 05:48 6,4 C 5,0 C 4,4 C 90 % 992,1 hPa 0,0 l/m 0 min 0 min 0 W/m 12,9 km/h (3 Bft) 97,87 %
21.12.2019 05:50 6,4 C 5,0 C 4,4 C 90 % 992,1 hPa 0,0 l/m 0 min 0 min 0 W/m 12,9 km/h (3 Bft) 100,00 %
21.12.2019 05:52 6,3 C 5,0 C 4,4 C 90 % 992,2 hPa 0,0 l/m 0 min 0 min 0 W/m 19,3 km/h (3 Bft) 100,00 %
21.12.2019 05:54 6,3 C 5,0 C 4,4 C 90 % 992,2 hPa 0,0 l/m 0 min 0 min 0 W/m 12,9 km/h (3 Bft) 100,00 %
21.12.2019 05:56 6,3 C 5,0 C 4,4 C 90 % 992,1 hPa 0,0 l/m 0 min 0 min 0 W/m 16,1 km/h (3 Bft) 100,00 %
21.12.2019 05:58 6,2 C 5,0 C 4,4 C 90 % 992,0 hPa 0,0 l/m 0 min 0 min 0 W/m 6,4 km/h (2 Bft) 100,00 %
21.12.2019 06:00 6,2 C 5,0 C 4,4 C 90 % 992,1 hPa 0,0 l/m 0 min 0 min 0 W/m 12,9 km/h (3 Bft) 100,00 %
21.12.2019 06:02 6,2 C 5,0 C 4,4 C 90 % 992,0 hPa 0,0 l/m 0 min 0 min 0 W/m 12,9 km/h (3 Bft) 97,87 %
21.12.2019 06:04 6,2 C 5,0 C 4,4 C 91 % 992,1 hPa 0,0 l/m 0 min 0 min 0 W/m 12,9 km/h (3 Bft) 97,67 %
21.12.2019 06:08 6,1 C 5,0 C 4,4 C 91 % 992,1 hPa 0,0 l/m 0 min 0 min 0 W/m 12,9 km/h (3 Bft) 100,00 %
21.12.2019 06:10 6,1 C 5,0 C 4,4 C 91 % 992,1 hPa 0,0 l/m 0 min 0 min 0 W/m 3,2 km/h (1 Bft) 100,00 %
21.12.2019 06:12 6,1 C 5,0 C 4,4 C 91 % 992,1 hPa 0,0 l/m 0 min 0 min 0 W/m 6,4 km/h (2 Bft) 100,00 %
21.12.2019 06:14 6,1 C 5,0 C 4,4 C 91 % 992,1 hPa 0,0 l/m 0 min 0 min 0 W/m 12,9 km/h (3 Bft) 100,00 %
21.12.2019 06:16 6,1 C 5,0 C 4,4 C 91 % 992,0 hPa 0,0 l/m 0 min 0 min 0 W/m 12,9 km/h (3 Bft) 97,87 %
21.12.2019 06:18 6,0 C 5,0 C 4,4 C 91 % 992,0 hPa 0,0 l/m 0 min 0 min 0 W/m 6,4 km/h (2 Bft) 100,00 %
21.12.2019 06:20 6,0 C 5,0 C 4,4 C 91 % 991,9 hPa 0,0 l/m 0 min 0 min 0 W/m 6,4 km/h (2 Bft) 100,00 %
21.12.2019 06:22 6,0 C 5,0 C 4,4 C 91 % 992,0 hPa 0,0 l/m 0 min 0 min 0 W/m 6,4 km/h (2 Bft) 97,96 %
21.12.2019 06:24 5,9 C 5,0 C 4,4 C 91 % 992,0 hPa 0,0 l/m 0 min 0 min 0 W/m 12,9 km/h (3 Bft) 100,00 %
21.12.2019 06:26 5,9 C 5,0 C 3,9 C 91 % 992,0 hPa 0,0 l/m 0 min 0 min 0 W/m 6,4 km/h (2 Bft) 100,00 %
21.12.2019 06:28 5,9 C 5,0 C 3,9 C 91 % 992,0 hPa 0,0 l/m 0 min 0 min 0 W/m 6,4 km/h (2 Bft) 100,00 %
21.12.2019 06:30 5,9 C 5,0 C 3,9 C 91 % 992,0 hPa 0,0 l/m 0 min 0 min 0 W/m 3,2 km/h (1 Bft) 100,00 %
21.12.2019 06:32 5,8 C 5,0 C 3,9 C 91 % 992,0 hPa 0,0 l/m 0 min 0 min 0 W/m 0,0 km/h (0 Bft) 97,62 %
21.12.2019 06:34 5,8 C 5,0 C 3,9 C 91 % 992,0 hPa 0,0 l/m 0 min 0 min 0 W/m 0,0 km/h (0 Bft) 100,00 %
21.12.2019 06:36 5,8 C 5,0 C 3,9 C 92 % 992,0 hPa 0,0 l/m 0 min 0 min 0 W/m 0,0 km/h (0 Bft) 97,87 %
21.12.2019 06:38 5,8 C 4,4 C 3,9 C 92 % 992,0 hPa 0,0 l/m 0 min 0 min 0 W/m 0,0 km/h (0 Bft) 97,87 %
21.12.2019 06:40 5,8 C 5,0 C 3,9 C 92 % 992,0 hPa 0,0 l/m 0 min 0 min 0 W/m 12,9 km/h (3 Bft) 97,87 %
21.12.2019 06:42 5,8 C 5,0 C 3,9 C 91 % 991,9 hPa 0,0 l/m 0 min 0 min 0 W/m 12,9 km/h (3 Bft) 93,48 %
21.12.2019 06:44 5,8 C 5,0 C 3,9 C 92 % 991,9 hPa 0,0 l/m 0 min 0 min 0 W/m 12,9 km/h (3 Bft) 95,83 %
21.12.2019 06:46 5,7 C 5,0 C 3,9 C 92 % 991,9 hPa 0,0 l/m 0 min 0 min 0 W/m 0,0 km/h (0 Bft) 97,92 %
21.12.2019 06:48 5,7 C 5,0 C 3,9 C 92 % 992,0 hPa 0,0 l/m 0 min 0 min 0 W/m 0,0 km/h (0 Bft) 95,74 %
21.12.2019 06:50 5,7 C 5,0 C 3,9 C 92 % 992,0 hPa 0,0 l/m 0 min 0 min 0 W/m 6,4 km/h (2 Bft) 95,74 %
21.12.2019 06:52 5,7 C 4,4 C 3,9 C 92 % 992,0 hPa 0,0 l/m 0 min 0 min 0 W/m 6,4 km/h (2 Bft) 93,62 %
21.12.2019 06:54 5,7 C 4,4 C 3,9 C 92 % 991,9 hPa 0,0 l/m 0 min 0 min 0 W/m 0,0 km/h (0 Bft) 95,65 %
21.12.2019 06:56 5,7 C 4,4 C 3,9 C 92 % 991,9 hPa 0,0 l/m 0 min 0 min 0 W/m 0,0 km/h (0 Bft) 93,62 %
21.12.2019 06:58 5,6 C 4,4 C 3,9 C 92 % 991,9 hPa 0,0 l/m 0 min 0 min 0 W/m 0,0 km/h (0 Bft) 92,00 %
21.12.2019 07:00 5,6 C 4,4 C 3,9 C 92 % 991,9 hPa 0,0 l/m 0 min 0 min 0 W/m 0,0 km/h (0 Bft) 93,62 %
21.12.2019 07:02 5,6 C 4,4 C 3,9 C 92 % 991,9 hPa 0,0 l/m 0 min 0 min 0 W/m 0,0 km/h (0 Bft) 93,62 %
21.12.2019 07:04 5,6 C 4,4 C 3,9 C 92 % 991,9 hPa 0,0 l/m 0 min 0 min 0 W/m 0,0 km/h (0 Bft) 92,86 %
21.12.2019 07:06 5,6 C 4,4 C 3,9 C 92 % 991,9 hPa 0,0 l/m 0 min 0 min 0 W/m 0,0 km/h (0 Bft) 93,62 %
21.12.2019 07:08 5,6 C 4,4 C 3,9 C 92 % 991,9 hPa 0,0 l/m 0 min 0 min 0 W/m 0,0 km/h (0 Bft) 93,62 %
21.12.2019 07:10 5,6 C 4,4 C 3,9 C 92 % 991,9 hPa 0,0 l/m 0 min 0 min 0 W/m 6,4 km/h (2 Bft) 93,75 %
21.12.2019 07:12 5,6 C 4,4 C 3,9 C 92 % 991,8 hPa 0,0 l/m 0 min 0 min 0 W/m 12,9 km/h (3 Bft) 93,75 %
21.12.2019 07:14 5,6 C 5,0 C 3,9 C 92 % 991,9 hPa 0,0 l/m 0 min 0 min 0 W/m 12,9 km/h (3 Bft) 91,67 %
21.12.2019 07:16 5,5 C 5,0 C 3,9 C 93 % 991,8 hPa 0,0 l/m 0 min 0 min 0 W/m 6,4 km/h (2 Bft) 93,62 %
21.12.2019 07:18 5,5 C 5,0 C 3,9 C 93 % 991,9 hPa 0,0 l/m 0 min 0 min 0 W/m 6,4 km/h (2 Bft) 91,49 %
21.12.2019 07:20 5,5 C 5,0 C 3,9 C 93 % 991,9 hPa 0,0 l/m 0 min 0 min 0 W/m 16,1 km/h (3 Bft) 93,75 %
21.12.2019 07:22 5,5 C 5,0 C 3,9 C 93 % 991,9 hPa 0,0 l/m 0 min 0 min 0 W/m 16,1 km/h (3 Bft) 93,62 %
21.12.2019 07:24 5,5 C 5,0 C 3,9 C 93 % 991,9 hPa 0,0 l/m 0 min 0 min 0 W/m 12,9 km/h (3 Bft) 95,83 %
21.12.2019 07:26 5,5 C 5,0 C 3,9 C 93 % 991,9 hPa 0,0 l/m 0 min 0 min 0 W/m 16,1 km/h (3 Bft) 95,74 %
21.12.2019 07:28 5,5 C 5,0 C 3,9 C 93 % 991,9 hPa 0,0 l/m 0 min 0 min 0 W/m 12,9 km/h (3 Bft) 95,83 %
21.12.2019 07:30 5,6 C 5,0 C 3,9 C 93 % 991,8 hPa 0,0 l/m 0 min 0 min 0 W/m 16,1 km/h (3 Bft) 95,83 %
21.12.2019 07:32 5,6 C 5,0 C 4,4 C 93 % 991,9 hPa 0,0 l/m 0 min 0 min 0 W/m 19,3 km/h (3 Bft) 95,83 %
21.12.2019 07:34 5,6 C 5,0 C 4,4 C 93 % 991,9 hPa 0,0 l/m 0 min 0 min 0 W/m 22,5 km/h (4 Bft) 93,62 %
21.12.2019 07:36 5,6 C 5,0 C 4,4 C 93 % 991,9 hPa 0,0 l/m 0 min 0 min 0 W/m 16,1 km/h (3 Bft) 95,65 %
21.12.2019 07:38 5,6 C 5,0 C 4,4 C 93 % 991,9 hPa 0,0 l/m 0 min 0 min 0 W/m 19,3 km/h (3 Bft) 95,74 %
21.12.2019 07:40 5,6 C 5,0 C 4,4 C 94 % 991,9 hPa 0,0 l/m 0 min 0 min 0 W/m 16,1 km/h (3 Bft) 95,74 %
21.12.2019 07:42 5,6 C 5,0 C 4,4 C 94 % 991,9 hPa 0,0 l/m 0 min 0 min 0 W/m 16,1 km/h (3 Bft) 95,74 %
21.12.2019 07:44 5,6 C 5,0 C 4,4 C 94 % 991,9 hPa 0,0 l/m 0 min 0 min 0 W/m 22,5 km/h (4 Bft) 95,74 %
21.12.2019 07:46 5,6 C 5,0 C 4,4 C 94 % 991,8 hPa 0,0 l/m 0 min 0 min 0 W/m 19,3 km/h (3 Bft) 97,87 %
21.12.2019 07:48 5,6 C 5,0 C 4,4 C 94 % 991,8 hPa 0,0 l/m 0 min 0 min 0 W/m 16,1 km/h (3 Bft) 97,83 %
21.12.2019 07:50 5,6 C 5,0 C 4,4 C 93 % 991,8 hPa 0,0 l/m 0 min 0 min 0 W/m 19,3 km/h (3 Bft) 97,62 %
21.12.2019 07:52 5,6 C 5,0 C 4,4 C 94 % 991,8 hPa 0,0 l/m 0 min 0 min 0 W/m 16,1 km/h (3 Bft) 100,00 %
21.12.2019 07:54 5,6 C 5,0 C 4,4 C 94 % 991,8 hPa 0,0 l/m 0 min 0 min 0 W/m 16,1 km/h (3 Bft) 100,00 %
21.12.2019 07:56 5,6 C 5,0 C 4,4 C 94 % 991,8 hPa 0,0 l/m 0 min 0 min 0 W/m 12,9 km/h (3 Bft) 100,00 %
21.12.2019 07:58 5,6 C 5,0 C 4,4 C 94 % 991,8 hPa 0,0 l/m 0 min 0 min 0 W/m 16,1 km/h (3 Bft) 97,96 %
21.12.2019 08:00 5,6 C 5,0 C 4,4 C 94 % 991,8 hPa 0,0 l/m 0 min 0 min 0 W/m 16,1 km/h (3 Bft) 100,00 %
21.12.2019 08:02 5,6 C 5,0 C 4,4 C 94 % 991,8 hPa 0,0 l/m 0 min 0 min 0 W/m 19,3 km/h (3 Bft) 100,00 %
21.12.2019 08:04 5,6 C 5,0 C 4,4 C 94 % 991,8 hPa 0,0 l/m 0 min 0 min 0 W/m 16,1 km/h (3 Bft) 100,00 %
21.12.2019 08:06 5,6 C 5,0 C 3,9 C 94 % 991,8 hPa 0,0 l/m 0 min 0 min 0 W/m 16,1 km/h (3 Bft) 97,92 %
21.12.2019 08:08 5,6 C 5,0 C 4,4 C 94 % 991,8 hPa 0,0 l/m 0 min 0 min 0 W/m 16,1 km/h (3 Bft) 100,00 %
21.12.2019 08:10 5,6 C 5,0 C 4,4 C 94 % 991,8 hPa 0,0 l/m 0 min 0 min 0 W/m 16,1 km/h (3 Bft) 100,00 %
21.12.2019 08:12 5,6 C 5,0 C 4,4 C 94 % 991,9 hPa 0,0 l/m 0 min 0 min 0 W/m 22,5 km/h (4 Bft) 100,00 %
21.12.2019 08:14 5,6 C 5,0 C 4,4 C 94 % 991,8 hPa 0,0 l/m 0 min 0 min 0 W/m 16,1 km/h (3 Bft) 100,00 %
21.12.2019 08:16 5,6 C 5,0 C 4,4 C 94 % 991,8 hPa 0,0 l/m 0 min 0 min 0 W/m 16,1 km/h (3 Bft) 100,00 %
21.12.2019 08:18 5,6 C 5,0 C 3,9 C 94 % 991,8 hPa 0,0 l/m 0 min 0 min 0 W/m 22,5 km/h (4 Bft) 100,00 %
21.12.2019 08:20 5,6 C 5,0 C 3,9 C 94 % 991,8 hPa 0,0 l/m 0 min 0 min 0 W/m 16,1 km/h (3 Bft) 97,92 %
21.12.2019 08:22 5,6 C 5,0 C 3,9 C 94 % 991,8 hPa 0,0 l/m 0 min 0 min 0 W/m 19,3 km/h (3 Bft) 100,00 %
21.12.2019 08:24 5,6 C 5,0 C 3,9 C 94 % 991,8 hPa 0,0 l/m 0 min 0 min 0 W/m 16,1 km/h (3 Bft) 100,00 %
21.12.2019 08:26 5,6 C 5,0 C 3,9 C 94 % 991,7 hPa 0,0 l/m 0 min 0 min 0 W/m 12,9 km/h (3 Bft) 100,00 %
21.12.2019 08:28 5,6 C 5,0 C 3,9 C 94 % 991,8 hPa 0,0 l/m 0 min 0 min 0 W/m 16,1 km/h (3 Bft) 100,00 %
21.12.2019 08:30 5,6 C 5,0 C 3,9 C 94 % 991,8 hPa 0,0 l/m 0 min 0 min 0 W/m 16,1 km/h (3 Bft) 100,00 %
21.12.2019 08:32 5,6 C 5,0 C 3,9 C 94 % 991,9 hPa 0,0 l/m 0 min 0 min 0 W/m 19,3 km/h (3 Bft) 100,00 %
21.12.2019 08:34 5,6 C 5,0 C 3,9 C 94 % 991,9 hPa 0,0 l/m 0 min 0 min 0 W/m 16,1 km/h (3 Bft) 100,00 %
21.12.2019 08:36 5,6 C 5,0 C 4,4 C 94 % 991,9 hPa 0,0 l/m 0 min 0 min 5 W/m 19,3 km/h (3 Bft) 97,87 %
21.12.2019 08:38 5,6 C 5,0 C 3,9 C 94 % 991,9 hPa 0,0 l/m 0 min 0 min 5 W/m 12,9 km/h (3 Bft) 100,00 %
21.12.2019 08:40 5,6 C 5,0 C 4,4 C 94 % 991,8 hPa 0,0 l/m 0 min 0 min 5 W/m 12,9 km/h (3 Bft) 57,45 %
21.12.2019 08:42 5,6 C 5,0 C 4,4 C 94 % 991,8 hPa 0,0 l/m 0 min 0 min 7 W/m 16,1 km/h (3 Bft) 100,00 %
21.12.2019 08:44 5,6 C 5,0 C 4,4 C 94 % 991,9 hPa 0,0 l/m 0 min 0 min 7 W/m 16,1 km/h (3 Bft) 100,00 %
21.12.2019 08:46 5,6 C 5,0 C 4,4 C 94 % 991,8 hPa 0,0 l/m 0 min 0 min 9 W/m 19,3 km/h (3 Bft) 97,92 %
21.12.2019 08:48 5,6 C 5,0 C 4,4 C 94 % 991,8 hPa 0,0 l/m 0 min 0 min 9 W/m 19,3 km/h (3 Bft) 98,00 %
21.12.2019 08:50 5,6 C 5,0 C 4,4 C 94 % 991,9 hPa 0,0 l/m 0 min 0 min 11 W/m 16,1 km/h (3 Bft) 100,00 %
21.12.2019 08:52 5,6 C 5,0 C 4,4 C 94 % 991,9 hPa 0,0 l/m 0 min 0 min 11 W/m 19,3 km/h (3 Bft) 95,74 %
21.12.2019 08:54 5,6 C 5,0 C 4,4 C 94 % 992,0 hPa 0,0 l/m 0 min 0 min 12 W/m 12,9 km/h (3 Bft) 97,92 %
21.12.2019 08:56 5,6 C 5,0 C 4,4 C 94 % 992,0 hPa 0,0 l/m 0 min 0 min 12 W/m 16,1 km/h (3 Bft) 100,00 %
21.12.2019 08:58 5,6 C 5,0 C 4,4 C 94 % 992,0 hPa 0,0 l/m 0 min 0 min 14 W/m 19,3 km/h (3 Bft) 100,00 %
21.12.2019 09:00 5,6 C 5,0 C 4,4 C 94 % 991,9 hPa 0,0 l/m 0 min 0 min 14 W/m 19,3 km/h (3 Bft) 97,83 %
21.12.2019 09:02 5,6 C 5,0 C 4,4 C 94 % 991,9 hPa 0,0 l/m 0 min 0 min 16 W/m 12,9 km/h (3 Bft) 97,67 %
21.12.2019 09:04 5,6 C 5,0 C 4,4 C 94 % 991,9 hPa 0,0 l/m 0 min 0 min 16 W/m 12,9 km/h (3 Bft) 100,00 %
21.12.2019 09:06 5,6 C 5,0 C 4,4 C 94 % 991,9 hPa 0,0 l/m 0 min 0 min 18 W/m 16,1 km/h (3 Bft) 100,00 %
21.12.2019 09:08 5,6 C 5,0 C 4,4 C 94 % 991,9 hPa 0,0 l/m 0 min 0 min 18 W/m 16,1 km/h (3 Bft) 100,00 %
21.12.2019 09:10 5,6 C 5,0 C 4,4 C 94 % 992,0 hPa 0,0 l/m 0 min 0 min 19 W/m 16,1 km/h (3 Bft) 100,00 %
21.12.2019 09:12 5,6 C 5,0 C 4,4 C 94 % 992,1 hPa 0,0 l/m 0 min 0 min 20 W/m 16,1 km/h (3 Bft) 100,00 %
21.12.2019 09:14 5,6 C 5,0 C 4,4 C 94 % 992,0 hPa 0,0 l/m 0 min 0 min 21 W/m 25,7 km/h (4 Bft) 100,00 %
21.12.2019 09:16 5,6 C 5,0 C 4,4 C 94 % 992,1 hPa 0,0 l/m 0 min 0 min 23 W/m 19,3 km/h (3 Bft) 100,00 %
21.12.2019 09:18 5,6 C 5,0 C 4,4 C 94 % 992,1 hPa 0,0 l/m 0 min 0 min 24 W/m 16,1 km/h (3 Bft) 95,74 %
21.12.2019 09:20 5,6 C 5,0 C 4,4 C 94 % 992,1 hPa 0,0 l/m 0 min 0 min 25 W/m 16,1 km/h (3 Bft) 97,87 %
21.12.2019 09:22 5,6 C 5,0 C 4,4 C 94 % 992,1 hPa 0,0 l/m 0 min 0 min 26 W/m 19,3 km/h (3 Bft) 95,83 %
21.12.2019 09:24 5,6 C 5,0 C 4,4 C 94 % 992,0 hPa 0,0 l/m 0 min 0 min 28 W/m 25,7 km/h (4 Bft) 97,92 %
21.12.2019 09:26 5,6 C 5,0 C 4,4 C 94 % 992,1 hPa 0,0 l/m 0 min 0 min 28 W/m 22,5 km/h (4 Bft) 93,62 %
21.12.2019 09:28 5,6 C 5,6 C 4,4 C 94 % 992,0 hPa 0,0 l/m 0 min 0 min 30 W/m 16,1 km/h (3 Bft) 95,74 %
21.12.2019 09:30 5,6 C 5,6 C 4,4 C 94 % 992,0 hPa 0,0 l/m 0 min 0 min 32 W/m 16,1 km/h (3 Bft) 93,62 %
21.12.2019 09:32 5,6 C 5,6 C 4,4 C 94 % 992,0 hPa 0,0 l/m 0 min 0 min 32 W/m 19,3 km/h (3 Bft) 97,83 %
21.12.2019 09:34 5,6 C 5,6 C 4,4 C 94 % 992,0 hPa 0,0 l/m 0 min 0 min 36 W/m 16,1 km/h (3 Bft) 97,87 %
21.12.2019 09:36 5,6 C 5,6 C 4,4 C 94 % 992,0 hPa 0,0 l/m 0 min 0 min 39 W/m 16,1 km/h (3 Bft) 91,49 %
21.12.2019 09:38 5,7 C 5,6 C 4,4 C 94 % 992,0 hPa 0,0 l/m 0 min 0 min 43 W/m 19,3 km/h (3 Bft) 95,24 %
21.12.2019 09:40 5,7 C 5,6 C 4,4 C 94 % 992,0 hPa 0,0 l/m 0 min 0 min 45 W/m 16,1 km/h (3 Bft) 93,75 %
21.12.2019 09:42 5,7 C 5,6 C 4,4 C 94 % 992,1 hPa 0,0 l/m 0 min 0 min 48 W/m 16,1 km/h (3 Bft) 95,83 %
21.12.2019 09:44 5,7 C 5,6 C 4,4 C 94 % 992,0 hPa 0,0 l/m 0 min 0 min 53 W/m 19,3 km/h (3 Bft) 95,74 %
21.12.2019 09:46 5,7 C 5,6 C 4,4 C 94 % 992,1 hPa 0,0 l/m 0 min 0 min 55 W/m 22,5 km/h (4 Bft) 95,74 %
21.12.2019 09:48 5,7 C 5,6 C 5,0 C 94 % 992,0 hPa 0,0 l/m 0 min 0 min 60 W/m 16,1 km/h (3 Bft) 93,62 %
21.12.2019 09:50 5,8 C 6,1 C 5,0 C 94 % 992,0 hPa 0,0 l/m 0 min 0 min 63 W/m 22,5 km/h (4 Bft) 97,87 %
21.12.2019 09:52 5,8 C 6,1 C 5,0 C 94 % 992,0 hPa 0,0 l/m 0 min 0 min 68 W/m 22,5 km/h (4 Bft) 93,62 %
21.12.2019 09:54 5,8 C 6,1 C 5,0 C 94 % 992,0 hPa 0,0 l/m 0 min 0 min 73 W/m 19,3 km/h (3 Bft) 93,62 %
21.12.2019 09:56 5,8 C 6,1 C 5,0 C 94 % 991,9 hPa 0,0 l/m 2 min 0 min 78 W/m 16,1 km/h (3 Bft) 95,65 %
21.12.2019 09:58 5,9 C 6,1 C 5,0 C 94 % 991,9 hPa 0,0 l/m 2 min 0 min 99 W/m 12,9 km/h (3 Bft) 95,74 %
21.12.2019 10:00 5,9 C 6,1 C 5,0 C 94 % 991,9 hPa 0,0 l/m 2 min 0 min 105 W/m 19,3 km/h (3 Bft) 95,74 %
21.12.2019 10:02 5,9 C 6,1 C 5,6 C 94 % 991,9 hPa 0,0 l/m 2 min 0 min 109 W/m 16,1 km/h (3 Bft) 95,74 %
21.12.2019 10:04 6,0 C 6,7 C 5,6 C 94 % 991,9 hPa 0,0 l/m 2 min 0 min 126 W/m 12,9 km/h (3 Bft) 97,87 %
21.12.2019 10:06 6,1 C 6,7 C 5,6 C 94 % 991,9 hPa 0,0 l/m 2 min 0 min 124 W/m 16,1 km/h (3 Bft) 95,65 %
21.12.2019 10:08 6,1 C 6,7 C 5,6 C 94 % 991,9 hPa 0,0 l/m 2 min 0 min 124 W/m 19,3 km/h (3 Bft) 97,87 %
21.12.2019 10:10 6,2 C 6,7 C 5,6 C 94 % 991,9 hPa 0,0 l/m 2 min 0 min 142 W/m 16,1 km/h (3 Bft) 95,74 %
21.12.2019 10:12 6,2 C 7,2 C 5,6 C 95 % 991,8 hPa 0,0 l/m 2 min 0 min 127 W/m 19,3 km/h (3 Bft) 97,87 %
21.12.2019 10:14 6,3 C 7,2 C 6,1 C 95 % 991,9 hPa 0,0 l/m 2 min 0 min 152 W/m 19,3 km/h (3 Bft) 97,87 %
21.12.2019 10:16 6,3 C 7,8 C 6,1 C 95 % 991,9 hPa 0,0 l/m 2 min 0 min 162 W/m 19,3 km/h (3 Bft) 95,74 %
21.12.2019 10:18 6,4 C 8,9 C 6,1 C 94 % 991,9 hPa 0,0 l/m 2 min 0 min 148 W/m 22,5 km/h (4 Bft) 95,65 %
21.12.2019 10:20 6,5 C 8,9 C 6,1 C 94 % 991,9 hPa 0,0 l/m 2 min 0 min 178 W/m 19,3 km/h (3 Bft) 93,62 %
21.12.2019 10:22 6,6 C 9,4 C 6,7 C 94 % 991,9 hPa 0,0 l/m 2 min 0 min 188 W/m 16,1 km/h (3 Bft) 95,74 %
21.12.2019 10:24 6,7 C 9,4 C 6,7 C 94 % 991,9 hPa 0,0 l/m 2 min 0 min 179 W/m 19,3 km/h (3 Bft) 95,74 %
21.12.2019 10:26 6,8 C 8,3 C 6,7 C 94 % 991,9 hPa 0,0 l/m 2 min 0 min 142 W/m 22,5 km/h (4 Bft) 95,74 %
21.12.2019 10:28 6,9 C 8,3 C 6,7 C 94 % 991,9 hPa 0,0 l/m 2 min 0 min 138 W/m 25,7 km/h (4 Bft) 95,74 %
21.12.2019 10:30 7,0 C 8,3 C 6,7 C 94 % 991,9 hPa 0,0 l/m 2 min 0 min 114 W/m 22,5 km/h (4 Bft) 93,48 %
21.12.2019 10:32 7,1 C 7,8 C 6,7 C 94 % 991,9 hPa 0,0 l/m 0 min 0 min 91 W/m 19,3 km/h (3 Bft) 95,74 %
21.12.2019 10:34 7,1 C 7,8 C 6,7 C 94 % 992,0 hPa 0,0 l/m 0 min 0 min 74 W/m 22,5 km/h (4 Bft) 93,62 %
21.12.2019 10:36 7,2 C 7,8 C 6,7 C 94 % 992,0 hPa 0,0 l/m 0 min 0 min 78 W/m 19,3 km/h (3 Bft) 95,74 %
21.12.2019 10:38 7,2 C 8,3 C 6,7 C 93 % 991,9 hPa 0,0 l/m 2 min 0 min 116 W/m 29,0 km/h (5 Bft) 97,87 %
21.12.2019 10:40 7,3 C 9,4 C 6,7 C 93 % 992,0 hPa 0,0 l/m 2 min 0 min 176 W/m 25,7 km/h (4 Bft) 97,83 %
21.12.2019 10:42 7,4 C 9,4 C 6,7 C 93 % 991,9 hPa 0,0 l/m 2 min 0 min 150 W/m 19,3 km/h (3 Bft) 97,87 %
21.12.2019 10:44 7,4 C 8,3 C 6,7 C 93 % 991,9 hPa 0,0 l/m 0 min 0 min 77 W/m 25,7 km/h (4 Bft) 97,87 %
21.12.2019 10:46 7,6 C 8,3 C 6,7 C 92 % 991,9 hPa 0,0 l/m 0 min 0 min 68 W/m 22,5 km/h (4 Bft) 95,74 %
21.12.2019 10:48 7,6 C 9,4 C 6,7 C 92 % 991,9 hPa 0,0 l/m 2 min 0 min 145 W/m 22,5 km/h (4 Bft) 97,87 %
21.12.2019 10:50 7,7 C 8,9 C 7,2 C 92 % 991,9 hPa 0,0 l/m 2 min 0 min 160 W/m 19,3 km/h (3 Bft) 95,74 %
21.12.2019 10:52 7,7 C 8,3 C 7,2 C 92 % 991,9 hPa 0,0 l/m 0 min 0 min 88 W/m 22,5 km/h (4 Bft) 97,83 %
21.12.2019 10:54 7,8 C 8,3 C 7,2 C 91 % 991,9 hPa 0,0 l/m 0 min 0 min 84 W/m 32,2 km/h (5 Bft) 100,00 %
21.12.2019 10:56 7,8 C 7,8 C 7,2 C 91 % 991,9 hPa 0,0 l/m 0 min 0 min 78 W/m 22,5 km/h (4 Bft) 97,87 %
21.12.2019 10:58 7,9 C 7,8 C 7,2 C 91 % 991,8 hPa 0,0 l/m 0 min 0 min 74 W/m 16,1 km/h (3 Bft) 100,00 %
21.12.2019 11:00 7,9 C 7,8 C 7,2 C 91 % 991,8 hPa 0,0 l/m 0 min 0 min 70 W/m 22,5 km/h (4 Bft) 100,00 %
21.12.2019 11:02 8,0 C 7,8 C 7,2 C 90 % 991,8 hPa 0,0 l/m 0 min 0 min 69 W/m 19,3 km/h (3 Bft) 97,87 %
21.12.2019 11:04 8,0 C 7,8 C 7,2 C 90 % 991,8 hPa 0,0 l/m 0 min 0 min 66 W/m 19,3 km/h (3 Bft) 100,00 %
21.12.2019 11:06 8,0 C 7,8 C 7,2 C 90 % 991,7 hPa 0,0 l/m 0 min 0 min 65 W/m 19,3 km/h (3 Bft) 100,00 %
21.12.2019 11:08 8,1 C 7,8 C 7,2 C 90 % 991,7 hPa 0,0 l/m 0 min 0 min 66 W/m 16,1 km/h (3 Bft) 100,00 %
21.12.2019 11:10 8,1 C 7,8 C 7,2 C 90 % 991,7 hPa 0,0 l/m 0 min 0 min 76 W/m 25,7 km/h (4 Bft) 100,00 %
21.12.2019 11:12 8,1 C 8,3 C 7,2 C 90 % 991,7 hPa 0,0 l/m 0 min 0 min 82 W/m 25,7 km/h (4 Bft) 97,87 %
21.12.2019 11:14 8,1 C 8,3 C 7,2 C 90 % 991,7 hPa 0,0 l/m 0 min 0 min 89 W/m 22,5 km/h (4 Bft) 97,87 %
21.12.2019 11:16 8,1 C 8,3 C 7,2 C 90 % 991,6 hPa 0,0 l/m 0 min 0 min 102 W/m 35,4 km/h (5 Bft) 97,83 %
21.12.2019 11:18 8,2 C 8,3 C 7,2 C 89 % 991,6 hPa 0,0 l/m 0 min 0 min 86 W/m 25,7 km/h (4 Bft) 100,00 %
21.12.2019 11:20 8,2 C 8,3 C 7,2 C 89 % 991,6 hPa 0,0 l/m 0 min 0 min 77 W/m 19,3 km/h (3 Bft) 100,00 %
21.12.2019 11:22 8,2 C 8,3 C 7,2 C 89 % 991,7 hPa 0,0 l/m 0 min 0 min 91 W/m 19,3 km/h (3 Bft) 100,00 %
21.12.2019 11:24 8,2 C 8,9 C 7,2 C 89 % 991,6 hPa 0,0 l/m 0 min 0 min 97 W/m 29,0 km/h (5 Bft) 97,87 %
21.12.2019 11:26 8,3 C 8,9 C 7,2 C 89 % 991,6 hPa 0,0 l/m 0 min 0 min 111 W/m 29,0 km/h (5 Bft) 100,00 %
21.12.2019 11:28 8,3 C 8,9 C 7,2 C 89 % 991,6 hPa 0,0 l/m 0 min 0 min 115 W/m 35,4 km/h (5 Bft) 95,65 %
21.12.2019 11:30 8,3 C 8,3 C 7,8 C 89 % 991,6 hPa 0,0 l/m 0 min 0 min 93 W/m 25,7 km/h (4 Bft) 100,00 %
21.12.2019 11:32 8,4 C 8,3 C 7,8 C 89 % 991,6 hPa 0,0 l/m 0 min 0 min 90 W/m 25,7 km/h (4 Bft) 97,87 %
21.12.2019 11:34 8,4 C 8,3 C 7,8 C 89 % 991,6 hPa 0,0 l/m 0 min 0 min 91 W/m 22,5 km/h (4 Bft) 97,87 %
21.12.2019 11:36 8,4 C 8,3 C 7,8 C 89 % 991,6 hPa 0,0 l/m 0 min 0 min 88 W/m 22,5 km/h (4 Bft) 97,87 %
21.12.2019 11:38 8,4 C 8,3 C 7,8 C 89 % 991,6 hPa 0,0 l/m 0 min 0 min 84 W/m 19,3 km/h (3 Bft) 97,87 %
21.12.2019 11:40 8,5 C 8,3 C 7,8 C 89 % 991,5 hPa 0,0 l/m 0 min 0 min 78 W/m 19,3 km/h (3 Bft) 97,83 %
21.12.2019 11:42 8,5 C 8,3 C 7,8 C 89 % 991,5 hPa 0,0 l/m 0 min 0 min 73 W/m 16,1 km/h (3 Bft) 95,74 %
21.12.2019 11:44 8,5 C 8,3 C 7,8 C 89 % 991,5 hPa 0,0 l/m 0 min 0 min 67 W/m 22,5 km/h (4 Bft) 97,87 %
21.12.2019 11:46 8,5 C 8,3 C 7,8 C 89 % 991,5 hPa 0,0 l/m 0 min 0 min 59 W/m 25,7 km/h (4 Bft) 95,74 %
21.12.2019 11:48 8,6 C 7,8 C 7,2 C 89 % 991,5 hPa 0,0 l/m 0 min 0 min 50 W/m 22,5 km/h (4 Bft) 97,87 %
21.12.2019 11:50 8,5 C 7,8 C 7,2 C 89 % 991,4 hPa 0,0 l/m 0 min 0 min 43 W/m 16,1 km/h (3 Bft) 95,74 %
21.12.2019 11:52 8,6 C 7,8 C 7,2 C 88 % 991,4 hPa 0,0 l/m 0 min 0 min 41 W/m 25,7 km/h (4 Bft) 97,83 %
21.12.2019 11:54 8,5 C 7,8 C 7,2 C 89 % 991,4 hPa 0,0 l/m 0 min 0 min 44 W/m 19,3 km/h (3 Bft) 97,87 %
21.12.2019 11:56 8,5 C 7,8 C 7,2 C 89 % 991,4 hPa 0,0 l/m 0 min 0 min 49 W/m 19,3 km/h (3 Bft) 97,87 %
21.12.2019 11:58 8,5 C 7,8 C 7,2 C 89 % 991,3 hPa 0,0 l/m 0 min 0 min 50 W/m 19,3 km/h (3 Bft) 97,87 %
21.12.2019 12:00 8,5 C 7,8 C 7,2 C 89 % 991,3 hPa 0,0 l/m 0 min 0 min 49 W/m 16,1 km/h (3 Bft) 97,87 %
21.12.2019 12:02 8,5 C 7,8 C 7,2 C 89 % 991,3 hPa 0,0 l/m 0 min 0 min 50 W/m 25,7 km/h (4 Bft) 97,83 %
21.12.2019 12:04 8,5 C 7,8 C 7,2 C 89 % 991,3 hPa 0,0 l/m 0 min 0 min 61 W/m 19,3 km/h (3 Bft) 95,74 %
21.12.2019 12:08 8,5 C 7,8 C 7,2 C 89 % 991,2 hPa 0,0 l/m 0 min 4 min 65 W/m 22,5 km/h (4 Bft) 96,81 %
21.12.2019 12:10 8,5 C 7,8 C 7,2 C 89 % 991,2 hPa 0,0 l/m 0 min 0 min 59 W/m 16,1 km/h (3 Bft) 97,87 %
21.12.2019 12:12 8,5 C 7,8 C 7,2 C 89 % 991,2 hPa 0,0 l/m 0 min 0 min 56 W/m 29,0 km/h (5 Bft) 95,74 %
21.12.2019 12:14 8,5 C 7,8 C 7,2 C 89 % 991,1 hPa 0,0 l/m 0 min 0 min 54 W/m 22,5 km/h (4 Bft) 100,00 %
21.12.2019 12:16 8,5 C 7,8 C 7,2 C 89 % 991,1 hPa 0,0 l/m 0 min 0 min 54 W/m 22,5 km/h (4 Bft) 100,00 %
21.12.2019 12:18 8,5 C 7,8 C 7,2 C 89 % 991,0 hPa 0,0 l/m 0 min 0 min 49 W/m 22,5 km/h (4 Bft) 97,87 %
21.12.2019 12:20 8,5 C 7,8 C 7,2 C 89 % 991,0 hPa 0,0 l/m 0 min 0 min 47 W/m 16,1 km/h (3 Bft) 100,00 %
21.12.2019 12:22 8,4 C 7,8 C 7,2 C 89 % 991,0 hPa 0,0 l/m 0 min 0 min 50 W/m 22,5 km/h (4 Bft) 97,87 %
21.12.2019 12:24 8,4 C 7,8 C 7,2 C 89 % 991,1 hPa 0,0 l/m 0 min 0 min 54 W/m 22,5 km/h (4 Bft) 100,00 %
21.12.2019 12:26 8,4 C 7,8 C 7,2 C 89 % 991,0 hPa 0,0 l/m 0 min 0 min 61 W/m 25,7 km/h (4 Bft) 97,83 %
21.12.2019 12:28 8,4 C 8,3 C 7,2 C 89 % 991,0 hPa 0,0 l/m 0 min 0 min 72 W/m 19,3 km/h (3 Bft) 100,00 %
21.12.2019 12:30 8,4 C 8,3 C 7,8 C 89 % 990,9 hPa 0,0 l/m 0 min 0 min 76 W/m 19,3 km/h (3 Bft) 100,00 %
21.12.2019 12:32 8,4 C 8,3 C 7,8 C 89 % 990,9 hPa 0,0 l/m 0 min 0 min 71 W/m 12,9 km/h (3 Bft) 100,00 %
21.12.2019 12:34 8,4 C 8,3 C 7,8 C 89 % 990,8 hPa 0,0 l/m 0 min 0 min 64 W/m 25,7 km/h (4 Bft) 100,00 %
21.12.2019 12:36 8,5 C 8,3 C 7,8 C 89 % 990,8 hPa 0,0 l/m 0 min 0 min 63 W/m 16,1 km/h (3 Bft) 100,00 %
21.12.2019 12:38 8,5 C 8,3 C 7,8 C 89 % 990,8 hPa 0,0 l/m 0 min 0 min 68 W/m 9,7 km/h (2 Bft) 97,83 %
21.12.2019 12:40 8,5 C 8,3 C 7,8 C 89 % 990,8 hPa 0,0 l/m 0 min 0 min 70 W/m 16,1 km/h (3 Bft) 100,00 %
21.12.2019 12:42 8,5 C 8,3 C 7,8 C 89 % 990,7 hPa 0,0 l/m 0 min 0 min 74 W/m 16,1 km/h (3 Bft) 100,00 %
21.12.2019 12:44 8,5 C 8,3 C 7,8 C 89 % 990,7 hPa 0,0 l/m 0 min 0 min 84 W/m 19,3 km/h (3 Bft) 97,87 %
21.12.2019 12:46 8,5 C 8,3 C 7,8 C 89 % 990,7 hPa 0,0 l/m 0 min 0 min 82 W/m 19,3 km/h (3 Bft) 97,87 %
21.12.2019 12:48 8,6 C 8,3 C 7,8 C 89 % 990,6 hPa 0,0 l/m 0 min 0 min 74 W/m 19,3 km/h (3 Bft) 100,00 %
21.12.2019 12:50 8,6 C 8,3 C 7,8 C 89 % 990,6 hPa 0,0 l/m 0 min 0 min 61 W/m 22,5 km/h (4 Bft) 100,00 %
21.12.2019 12:52 8,6 C 8,3 C 7,8 C 89 % 990,7 hPa 0,0 l/m 0 min 0 min 52 W/m 19,3 km/h (3 Bft) 95,74 %
21.12.2019 12:54 8,6 C 8,3 C 7,8 C 89 % 990,6 hPa 0,0 l/m 0 min 0 min 47 W/m 16,1 km/h (3 Bft) 97,87 %
21.12.2019 12:56 8,6 C 8,3 C 7,8 C 89 % 990,6 hPa 0,0 l/m 0 min 0 min 42 W/m 22,5 km/h (4 Bft) 95,74 %
21.12.2019 12:58 8,6 C 8,3 C 7,8 C 89 % 990,6 hPa 0,0 l/m 0 min 0 min 40 W/m 25,7 km/h (4 Bft) 97,87 %
21.12.2019 13:00 8,6 C 8,3 C 7,8 C 88 % 990,6 hPa 0,0 l/m 0 min 0 min 43 W/m 19,3 km/h (3 Bft) 95,74 %
21.12.2019 13:02 8,6 C 8,3 C 7,8 C 88 % 990,6 hPa 0,0 l/m 0 min 0 min 49 W/m 22,5 km/h (4 Bft) 91,30 %
21.12.2019 13:04 8,6 C 8,3 C 7,8 C 89 % 990,6 hPa 0,0 l/m 0 min 0 min 61 W/m 19,3 km/h (3 Bft) 95,74 %
21.12.2019 13:06 8,6 C 8,3 C 7,8 C 89 % 990,6 hPa 0,0 l/m 0 min 0 min 72 W/m 19,3 km/h (3 Bft) 95,74 %
21.12.2019 13:08 8,6 C 8,3 C 7,8 C 89 % 990,5 hPa 0,0 l/m 0 min 0 min 83 W/m 19,3 km/h (3 Bft) 95,74 %
21.12.2019 13:10 8,7 C 8,3 C 7,8 C 88 % 990,5 hPa 0,0 l/m 0 min 0 min 84 W/m 16,1 km/h (3 Bft) 95,74 %
21.12.2019 13:12 8,7 C 8,3 C 7,8 C 88 % 990,4 hPa 0,0 l/m 0 min 0 min 94 W/m 25,7 km/h (4 Bft) 95,65 %
21.12.2019 13:14 8,7 C 8,9 C 8,3 C 88 % 990,4 hPa 0,0 l/m 0 min 0 min 95 W/m 16,1 km/h (3 Bft) 72,34 %
21.12.2019 13:16 8,7 C 8,9 C 8,3 C 88 % 990,3 hPa 0,0 l/m 0 min 0 min 97 W/m 19,3 km/h (3 Bft) 75,00 %
21.12.2019 13:18 8,7 C 8,9 C 8,3 C 88 % 990,3 hPa 0,0 l/m 0 min 0 min 104 W/m 19,3 km/h (3 Bft) 95,74 %
21.12.2019 13:20 8,8 C 8,9 C 8,3 C 88 % 990,3 hPa 0,0 l/m 0 min 0 min 110 W/m 19,3 km/h (3 Bft) 97,87 %
21.12.2019 13:22 8,8 C 8,9 C 8,3 C 88 % 990,2 hPa 0,0 l/m 0 min 0 min 104 W/m 25,7 km/h (4 Bft) 95,74 %
21.12.2019 13:24 8,8 C 8,9 C 8,3 C 88 % 990,2 hPa 0,0 l/m 0 min 0 min 96 W/m 22,5 km/h (4 Bft) 95,65 %
21.12.2019 13:26 8,8 C 8,9 C 8,3 C 88 % 990,2 hPa 0,0 l/m 0 min 0 min 94 W/m 25,7 km/h (4 Bft) 95,74 %
21.12.2019 13:28 8,8 C 8,9 C 8,3 C 88 % 990,1 hPa 0,0 l/m 0 min 0 min 90 W/m 16,1 km/h (3 Bft) 95,74 %
21.12.2019 13:30 8,8 C 8,9 C 8,3 C 88 % 990,1 hPa 0,0 l/m 0 min 0 min 81 W/m 25,7 km/h (4 Bft) 95,74 %
21.12.2019 13:32 8,9 C 8,9 C 8,3 C 88 % 990,1 hPa 0,0 l/m 0 min 0 min 87 W/m 19,3 km/h (3 Bft) 95,74 %
21.12.2019 13:34 8,9 C 8,9 C 8,3 C 88 % 990,1 hPa 0,0 l/m 0 min 0 min 108 W/m 19,3 km/h (3 Bft) 95,74 %
21.12.2019 13:36 8,9 C 8,9 C 8,3 C 88 % 990,1 hPa 0,0 l/m 0 min 0 min 108 W/m 19,3 km/h (3 Bft) 95,65 %
21.12.2019 13:38 8,9 C 9,4 C 8,3 C 88 % 990,1 hPa 0,0 l/m 0 min 0 min 108 W/m 22,5 km/h (4 Bft) 95,74 %
21.12.2019 13:40 9,0 C 9,4 C 8,3 C 87 % 990,0 hPa 0,0 l/m 0 min 0 min 121 W/m 19,3 km/h (3 Bft) 95,74 %
21.12.2019 13:42 9,0 C 10,0 C 8,3 C 87 % 990,0 hPa 0,0 l/m 2 min 0 min 143 W/m 22,5 km/h (4 Bft) 95,74 %
21.12.2019 13:44 9,1 C 10,0 C 8,3 C 87 % 990,0 hPa 0,0 l/m 0 min 0 min 111 W/m 22,5 km/h (4 Bft) 93,62 %
21.12.2019 13:46 9,1 C 9,4 C 8,3 C 87 % 990,0 hPa 0,0 l/m 0 min 0 min 76 W/m 16,1 km/h (3 Bft) 93,62 %
21.12.2019 13:48 9,1 C 9,4 C 8,3 C 87 % 990,0 hPa 0,0 l/m 0 min 0 min 67 W/m 29,0 km/h (5 Bft) 91,30 %
21.12.2019 13:50 9,1 C 9,4 C 8,3 C 87 % 990,0 hPa 0,0 l/m 0 min 0 min 70 W/m 19,3 km/h (3 Bft) 95,74 %
21.12.2019 13:52 9,2 C 9,4 C 8,3 C 87 % 990,0 hPa 0,0 l/m 0 min 0 min 79 W/m 22,5 km/h (4 Bft) 97,87 %
21.12.2019 13:54 9,2 C 9,4 C 8,3 C 86 % 989,9 hPa 0,0 l/m 0 min 0 min 76 W/m 19,3 km/h (3 Bft) 100,00 %
21.12.2019 13:56 9,2 C 9,4 C 8,3 C 86 % 990,0 hPa 0,0 l/m 0 min 0 min 70 W/m 16,1 km/h (3 Bft) 100,00 %
21.12.2019 13:58 9,2 C 9,4 C 8,3 C 86 % 990,0 hPa 0,0 l/m 0 min 0 min 80 W/m 16,1 km/h (3 Bft) 97,83 %
21.12.2019 14:00 9,2 C 9,4 C 8,9 C 86 % 989,9 hPa 0,0 l/m 0 min 0 min 85 W/m 29,0 km/h (5 Bft) 95,74 %
21.12.2019 14:02 9,3 C 9,4 C 8,9 C 86 % 989,9 hPa 0,0 l/m 0 min 0 min 59 W/m 19,3 km/h (3 Bft) 97,87 %
21.12.2019 14:04 9,3 C 9,4 C 8,3 C 86 % 989,9 hPa 0,0 l/m 0 min 0 min 49 W/m 25,7 km/h (4 Bft) 97,87 %
21.12.2019 14:06 9,3 C 9,4 C 8,3 C 85 % 989,8 hPa 0,0 l/m 0 min 0 min 49 W/m 19,3 km/h (3 Bft) 95,74 %
21.12.2019 14:08 9,3 C 9,4 C 8,3 C 85 % 989,7 hPa 0,0 l/m 0 min 0 min 58 W/m 16,1 km/h (3 Bft) 93,62 %
21.12.2019 14:10 9,3 C 9,4 C 8,3 C 85 % 989,7 hPa 0,0 l/m 0 min 0 min 60 W/m 16,1 km/h (3 Bft) 97,83 %
21.12.2019 14:12 9,4 C 9,4 C 8,3 C 85 % 989,7 hPa 0,0 l/m 0 min 0 min 52 W/m 16,1 km/h (3 Bft) 95,74 %
21.12.2019 14:14 9,4 C 9,4 C 8,3 C 85 % 989,7 hPa 0,0 l/m 0 min 0 min 57 W/m 12,9 km/h (3 Bft) 97,87 %
21.12.2019 14:16 9,4 C 9,4 C 8,3 C 85 % 989,6 hPa 0,0 l/m 0 min 0 min 49 W/m 12,9 km/h (3 Bft) 97,87 %
21.12.2019 14:18 9,4 C 9,4 C 8,3 C 85 % 989,6 hPa 0,0 l/m 0 min 0 min 52 W/m 25,7 km/h (4 Bft) 97,87 %
21.12.2019 14:20 9,4 C 9,4 C 8,3 C 84 % 989,5 hPa 0,0 l/m 0 min 0 min 40 W/m 22,5 km/h (4 Bft) 97,87 %
21.12.2019 14:22 9,4 C 9,4 C 8,3 C 84 % 989,5 hPa 0,0 l/m 0 min 0 min 43 W/m 19,3 km/h (3 Bft) 97,83 %
21.12.2019 14:24 9,4 C 9,4 C 8,3 C 84 % 989,5 hPa 0,0 l/m 0 min 0 min 46 W/m 16,1 km/h (3 Bft) 97,87 %
21.12.2019 14:26 9,4 C 9,4 C 8,3 C 84 % 989,5 hPa 0,0 l/m 0 min 0 min 39 W/m 12,9 km/h (3 Bft) 95,74 %
21.12.2019 14:28 9,5 C 8,9 C 8,3 C 84 % 989,5 hPa 0,0 l/m 0 min 0 min 34 W/m 22,5 km/h (4 Bft) 97,87 %
21.12.2019 14:30 9,5 C 8,9 C 8,3 C 84 % 989,5 hPa 0,0 l/m 0 min 0 min 33 W/m 19,3 km/h (3 Bft) 97,87 %
21.12.2019 14:32 9,5 C 9,4 C 8,3 C 84 % 989,5 hPa 0,0 l/m 0 min 0 min 42 W/m 25,7 km/h (4 Bft) 95,74 %
21.12.2019 14:34 9,5 C 9,4 C 8,9 C 84 % 989,5 hPa 0,0 l/m 0 min 0 min 52 W/m 12,9 km/h (3 Bft) 97,83 %
21.12.2019 14:36 9,5 C 9,4 C 8,3 C 84 % 989,4 hPa 0,0 l/m 0 min 0 min 45 W/m 19,3 km/h (3 Bft) 97,87 %
21.12.2019 14:38 9,6 C 8,9 C 8,3 C 84 % 989,4 hPa 0,0 l/m 0 min 0 min 37 W/m 22,5 km/h (4 Bft) 97,87 %
21.12.2019 14:40 9,6 C 8,9 C 8,3 C 84 % 989,4 hPa 0,0 l/m 0 min 0 min 32 W/m 19,3 km/h (3 Bft) 100,00 %
21.12.2019 14:42 9,6 C 8,9 C 8,3 C 84 % 989,4 hPa 0,0 l/m 0 min 0 min 31 W/m 16,1 km/h (3 Bft) 97,87 %
21.12.2019 14:44 9,6 C 8,9 C 8,3 C 84 % 989,4 hPa 0,0 l/m 0 min 0 min 36 W/m 16,1 km/h (3 Bft) 97,87 %
21.12.2019 14:46 9,6 C 9,4 C 8,3 C 84 % 989,4 hPa 0,0 l/m 0 min 0 min 49 W/m 16,1 km/h (3 Bft) 97,83 %
21.12.2019 14:48 9,6 C 9,4 C 8,3 C 84 % 989,3 hPa 0,0 l/m 0 min 0 min 61 W/m 16,1 km/h (3 Bft) 100,00 %
21.12.2019 14:50 9,6 C 9,4 C 8,9 C 84 % 989,3 hPa 0,0 l/m 0 min 0 min 73 W/m 16,1 km/h (3 Bft) 100,00 %
21.12.2019 14:52 9,6 C 9,4 C 8,9 C 84 % 989,3 hPa 0,0 l/m 0 min 0 min 77 W/m 19,3 km/h (3 Bft) 100,00 %
21.12.2019 14:54 9,6 C 9,4 C 8,9 C 84 % 989,3 hPa 0,0 l/m 0 min 0 min 76 W/m 12,9 km/h (3 Bft) 97,87 %
21.12.2019 14:56 9,6 C 9,4 C 8,9 C 84 % 989,3 hPa 0,0 l/m 2 min 0 min 88 W/m 19,3 km/h (3 Bft) 100,00 %
21.12.2019 14:58 9,6 C 9,4 C 8,9 C 84 % 989,2 hPa 0,0 l/m 0 min 0 min 62 W/m 16,1 km/h (3 Bft) 100,00 %
21.12.2019 15:00 9,6 C 9,4 C 8,9 C 84 % 989,1 hPa 0,0 l/m 0 min 0 min 45 W/m 16,1 km/h (3 Bft) 100,00 %
21.12.2019 15:02 9,7 C 9,4 C 8,3 C 84 % 989,2 hPa 0,0 l/m 0 min 0 min 37 W/m 16,1 km/h (3 Bft) 100,00 %
21.12.2019 15:04 9,7 C 9,4 C 8,3 C 84 % 989,1 hPa 0,0 l/m 0 min 0 min 35 W/m 16,1 km/h (3 Bft) 100,00 %
21.12.2019 15:06 9,7 C 9,4 C 8,3 C 84 % 989,1 hPa 0,0 l/m 0 min 0 min 35 W/m 19,3 km/h (3 Bft) 100,00 %
21.12.2019 15:08 9,7 C 9,4 C 8,3 C 83 % 989,0 hPa 0,0 l/m 0 min 0 min 33 W/m 25,7 km/h (4 Bft) 100,00 %
21.12.2019 15:10 9,6 C 8,9 C 8,3 C 83 % 989,0 hPa 0,0 l/m 0 min 0 min 33 W/m 16,1 km/h (3 Bft) 100,00 %
21.12.2019 15:12 9,6 C 8,9 C 8,3 C 83 % 988,9 hPa 0,0 l/m 0 min 0 min 32 W/m 16,1 km/h (3 Bft) 100,00 %
21.12.2019 15:14 9,6 C 8,9 C 8,3 C 83 % 988,9 hPa 0,0 l/m 0 min 0 min 32 W/m 6,4 km/h (2 Bft) 54,55 %
21.12.2019 15:16 9,6 C 8,9 C 8,3 C 83 % 988,9 hPa 0,0 l/m 0 min 0 min 31 W/m 12,9 km/h (3 Bft) 97,87 %
21.12.2019 15:18 9,6 C 8,9 C 8,3 C 83 % 988,9 hPa 0,0 l/m 0 min 0 min 30 W/m 19,3 km/h (3 Bft) 100,00 %
21.12.2019 15:20 9,6 C 8,9 C 8,3 C 83 % 988,9 hPa 0,0 l/m 0 min 0 min 30 W/m 22,5 km/h (4 Bft) 100,00 %
21.12.2019 15:22 9,6 C 8,9 C 8,3 C 83 % 988,9 hPa 0,0 l/m 0 min 0 min 30 W/m 25,7 km/h (4 Bft) 93,62 %
21.12.2019 15:24 9,6 C 8,9 C 8,3 C 83 % 988,9 hPa 0,0 l/m 0 min 0 min 30 W/m 19,3 km/h (3 Bft) 100,00 %
21.12.2019 15:26 9,6 C 8,9 C 7,8 C 83 % 988,9 hPa 0,0 l/m 0 min 0 min 28 W/m 19,3 km/h (3 Bft) 100,00 %
21.12.2019 15:28 9,6 C 8,9 C 7,8 C 82 % 988,8 hPa 0,0 l/m 0 min 0 min 28 W/m 25,7 km/h (4 Bft) 100,00 %
21.12.2019 15:30 9,6 C 8,9 C 7,8 C 82 % 988,8 hPa 0,0 l/m 0 min 0 min 28 W/m 16,1 km/h (3 Bft) 97,87 %
21.12.2019 15:32 9,5 C 8,9 C 7,8 C 82 % 988,8 hPa 0,0 l/m 0 min 0 min 26 W/m 16,1 km/h (3 Bft) 97,87 %
21.12.2019 15:34 9,5 C 8,9 C 7,8 C 82 % 988,9 hPa 0,0 l/m 0 min 0 min 26 W/m 22,5 km/h (4 Bft) 100,00 %
21.12.2019 15:36 9,5 C 8,9 C 7,8 C 82 % 988,9 hPa 0,0 l/m 0 min 0 min 26 W/m 19,3 km/h (3 Bft) 97,83 %
21.12.2019 15:38 9,4 C 8,3 C 7,8 C 82 % 988,8 hPa 0,0 l/m 0 min 0 min 25 W/m 16,1 km/h (3 Bft) 97,87 %
21.12.2019 15:40 9,4 C 8,3 C 7,8 C 82 % 988,8 hPa 0,0 l/m 0 min 0 min 23 W/m 19,3 km/h (3 Bft) 97,87 %
21.12.2019 15:42 9,4 C 8,3 C 7,8 C 82 % 988,9 hPa 0,0 l/m 0 min 0 min 25 W/m 9,7 km/h (2 Bft) 100,00 %
21.12.2019 15:44 9,4 C 8,3 C 7,8 C 82 % 988,9 hPa 0,0 l/m 0 min 0 min 29 W/m 6,4 km/h (2 Bft) 93,62 %
21.12.2019 15:46 9,4 C 8,3 C 7,8 C 82 % 988,9 hPa 0,0 l/m 0 min 0 min 28 W/m 16,1 km/h (3 Bft) 97,87 %
21.12.2019 15:48 9,3 C 8,3 C 7,8 C 82 % 988,9 hPa 0,0 l/m 0 min 0 min 21 W/m 16,1 km/h (3 Bft) 97,83 %
21.12.2019 15:50 9,3 C 8,3 C 7,8 C 82 % 988,9 hPa 0,0 l/m 0 min 0 min 20 W/m 6,4 km/h (2 Bft) 97,87 %
21.12.2019 15:52 9,3 C 8,3 C 7,2 C 83 % 988,8 hPa 0,0 l/m 0 min 0 min 19 W/m 12,9 km/h (3 Bft) 97,87 %
21.12.2019 15:54 9,3 C 8,3 C 7,2 C 83 % 988,8 hPa 0,0 l/m 0 min 0 min 18 W/m 22,5 km/h (4 Bft) 97,87 %
21.12.2019 15:56 9,3 C 8,3 C 7,2 C 83 % 988,7 hPa 0,0 l/m 0 min 0 min 18 W/m 12,9 km/h (3 Bft) 97,87 %
21.12.2019 15:58 9,2 C 8,3 C 7,2 C 83 % 988,7 hPa 0,0 l/m 0 min 0 min 18 W/m 12,9 km/h (3 Bft) 95,65 %
21.12.2019 16:00 9,2 C 8,3 C 7,2 C 83 % 988,7 hPa 0,0 l/m 0 min 0 min 17 W/m 19,3 km/h (3 Bft) 95,74 %
21.12.2019 16:02 9,2 C 8,3 C 7,2 C 83 % 988,7 hPa 0,0 l/m 0 min 0 min 16 W/m 19,3 km/h (3 Bft) 97,87 %
21.12.2019 16:04 9,1 C 7,8 C 7,2 C 83 % 988,7 hPa 0,0 l/m 0 min 0 min 15 W/m 16,1 km/h (3 Bft) 95,74 %
21.12.2019 16:06 9,1 C 7,8 C 7,2 C 83 % 988,7 hPa 0,0 l/m 0 min 0 min 15 W/m 16,1 km/h (3 Bft) 91,49 %
21.12.2019 16:08 9,1 C 8,3 C 7,2 C 83 % 988,7 hPa 0,0 l/m 0 min 0 min 17 W/m 22,5 km/h (4 Bft) 95,74 %
21.12.2019 16:10 9,1 C 8,3 C 7,2 C 83 % 988,6 hPa 0,0 l/m 0 min 0 min 15 W/m 16,1 km/h (3 Bft) 95,65 %
21.12.2019 16:12 9,0 C 7,8 C 7,2 C 83 % 988,7 hPa 0,0 l/m 0 min 0 min 12 W/m 12,9 km/h (3 Bft) 95,74 %
21.12.2019 16:14 9,0 C 7,8 C 7,2 C 83 % 988,7 hPa 0,0 l/m 0 min 0 min 12 W/m 16,1 km/h (3 Bft) 95,74 %
21.12.2019 16:16 8,9 C 7,8 C 7,2 C 83 % 988,7 hPa 0,0 l/m 0 min 0 min 10 W/m 16,1 km/h (3 Bft) 95,74 %
21.12.2019 16:18 8,9 C 7,8 C 7,2 C 84 % 988,6 hPa 0,0 l/m 0 min 0 min 9 W/m 12,9 km/h (3 Bft) 100,00 %
21.12.2019 16:20 8,9 C 7,8 C 7,2 C 84 % 988,5 hPa 0,0 l/m 0 min 0 min 8 W/m 12,9 km/h (3 Bft) 97,87 %
21.12.2019 16:22 8,9 C 7,8 C 7,2 C 84 % 988,6 hPa 0,0 l/m 0 min 0 min 7 W/m 16,1 km/h (3 Bft) 97,87 %
21.12.2019 16:24 8,8 C 7,8 C 7,2 C 84 % 988,6 hPa 0,0 l/m 0 min 0 min 7 W/m 16,1 km/h (3 Bft) 97,96 %
21.12.2019 16:26 8,8 C 7,8 C 6,7 C 84 % 988,6 hPa 0,0 l/m 0 min 0 min 5 W/m 12,9 km/h (3 Bft) 97,87 %
21.12.2019 16:28 8,8 C 7,2 C 6,7 C 84 % 988,6 hPa 0,0 l/m 0 min 0 min 5 W/m 6,4 km/h (2 Bft) 97,87 %
21.12.2019 16:30 8,8 C 7,2 C 6,7 C 84 % 988,6 hPa 0,0 l/m 0 min 0 min 0 W/m 6,4 km/h (2 Bft) 97,87 %
21.12.2019 16:32 8,7 C 7,2 C 6,7 C 84 % 988,7 hPa 0,0 l/m 0 min 0 min 0 W/m 6,4 km/h (2 Bft) 97,83 %
21.12.2019 16:34 8,7 C 7,2 C 6,7 C 84 % 988,7 hPa 0,0 l/m 0 min 0 min 0 W/m 12,9 km/h (3 Bft) 95,74 %
21.12.2019 16:36 8,7 C 7,2 C 6,7 C 84 % 988,6 hPa 0,0 l/m 0 min 0 min 0 W/m 22,5 km/h (4 Bft) 95,74 %
21.12.2019 16:38 8,6 C 7,2 C 6,7 C 84 % 988,6 hPa 0,0 l/m 0 min 0 min 0 W/m 16,1 km/h (3 Bft) 95,74 %
21.12.2019 16:40 8,6 C 7,2 C 6,7 C 84 % 988,6 hPa 0,0 l/m 0 min 0 min 0 W/m 12,9 km/h (3 Bft) 95,74 %
21.12.2019 16:42 8,5 C 7,2 C 6,7 C 84 % 988,6 hPa 0,0 l/m 0 min 0 min 0 W/m 22,5 km/h (4 Bft) 95,74 %
21.12.2019 16:44 8,4 C 7,2 C 6,7 C 84 % 988,6 hPa 0,0 l/m 0 min 0 min 0 W/m 12,9 km/h (3 Bft) 95,65 %
21.12.2019 16:46 8,4 C 7,2 C 6,7 C 84 % 988,7 hPa 0,0 l/m 0 min 0 min 0 W/m 16,1 km/h (3 Bft) 91,49 %
21.12.2019 16:48 8,3 C 7,2 C 6,7 C 85 % 988,7 hPa 0,0 l/m 0 min 0 min 0 W/m 12,9 km/h (3 Bft) 93,62 %
21.12.2019 16:50 8,3 C 7,2 C 6,7 C 85 % 988,7 hPa 0,0 l/m 0 min 0 min 0 W/m 16,1 km/h (3 Bft) 97,87 %
21.12.2019 16:52 8,3 C 7,2 C 6,7 C 85 % 988,7 hPa 0,0 l/m 0 min 0 min 0 W/m 16,1 km/h (3 Bft) 95,74 %
21.12.2019 16:54 8,2 C 7,2 C 6,7 C 85 % 988,7 hPa 0,0 l/m 0 min 0 min 0 W/m 19,3 km/h (3 Bft) 93,62 %
21.12.2019 16:56 8,2 C 7,2 C 6,7 C 85 % 988,8 hPa 0,0 l/m 0 min 0 min 0 W/m 16,1 km/h (3 Bft) 93,48 %
21.12.2019 16:58 8,2 C 7,2 C 6,7 C 85 % 988,7 hPa 0,0 l/m 0 min 0 min 0 W/m 29,0 km/h (5 Bft) 95,74 %
21.12.2019 17:00 8,2 C 7,2 C 6,7 C 85 % 988,7 hPa 0,0 l/m 0 min 0 min 0 W/m 22,5 km/h (4 Bft) 97,87 %
21.12.2019 17:02 8,1 C 7,2 C 6,7 C 85 % 988,8 hPa 0,0 l/m 0 min 0 min 0 W/m 22,5 km/h (4 Bft) 93,62 %
21.12.2019 17:04 8,1 C 7,2 C 6,7 C 85 % 988,8 hPa 0,0 l/m 0 min 0 min 0 W/m 12,9 km/h (3 Bft) 93,62 %
21.12.2019 17:06 8,1 C 7,2 C 6,7 C 85 % 988,9 hPa 0,0 l/m 0 min 0 min 0 W/m 16,1 km/h (3 Bft) 95,74 %
21.12.2019 17:08 8,1 C 7,2 C 6,7 C 85 % 988,9 hPa 0,0 l/m 0 min 0 min 0 W/m 19,3 km/h (3 Bft) 95,65 %
21.12.2019 17:10 8,1 C 7,2 C 6,7 C 85 % 988,9 hPa 0,0 l/m 0 min 0 min 0 W/m 19,3 km/h (3 Bft) 95,74 %
21.12.2019 17:12 8,1 C 7,2 C 6,7 C 85 % 988,9 hPa 0,0 l/m 0 min 0 min 0 W/m 16,1 km/h (3 Bft) 95,74 %
21.12.2019 17:14 8,1 C 7,2 C 6,7 C 85 % 988,9 hPa 0,0 l/m 0 min 0 min 0 W/m 22,5 km/h (4 Bft) 97,87 %
21.12.2019 17:16 8,1 C 7,2 C 6,7 C 85 % 989,0 hPa 0,0 l/m 0 min 0 min 0 W/m 16,1 km/h (3 Bft) 95,74 %
21.12.2019 17:18 8,1 C 7,2 C 6,7 C 85 % 989,0 hPa 0,0 l/m 0 min 0 min 0 W/m 9,7 km/h (2 Bft) 97,83 %
21.12.2019 17:20 8,1 C 7,2 C 6,7 C 85 % 989,0 hPa 0,0 l/m 0 min 0 min 0 W/m 19,3 km/h (3 Bft) 100,00 %
21.12.2019 17:22 8,1 C 7,2 C 6,7 C 85 % 989,1 hPa 0,0 l/m 0 min 0 min 0 W/m 16,1 km/h (3 Bft) 93,62 %
21.12.2019 17:24 8,1 C 7,2 C 6,7 C 85 % 989,1 hPa 0,0 l/m 0 min 0 min 0 W/m 19,3 km/h (3 Bft) 100,00 %
21.12.2019 17:26 8,1 C 7,2 C 6,7 C 85 % 989,0 hPa 0,0 l/m 0 min 0 min 0 W/m 19,3 km/h (3 Bft) 97,87 %
21.12.2019 17:28 8,1 C 7,2 C 6,7 C 85 % 989,0 hPa 0,0 l/m 0 min 0 min 0 W/m 19,3 km/h (3 Bft) 100,00 %
21.12.2019 17:30 8,1 C 7,2 C 6,7 C 85 % 989,0 hPa 0,0 l/m 0 min 0 min 0 W/m 16,1 km/h (3 Bft) 97,83 %
21.12.2019 17:32 8,1 C 7,2 C 6,7 C 85 % 989,1 hPa 0,0 l/m 0 min 0 min 0 W/m 16,1 km/h (3 Bft) 100,00 %
21.12.2019 17:34 8,1 C 7,2 C 6,7 C 86 % 989,0 hPa 0,0 l/m 0 min 0 min 0 W/m 16,1 km/h (3 Bft) 100,00 %
21.12.2019 17:36 8,1 C 7,2 C 6,7 C 86 % 989,0 hPa 0,0 l/m 0 min 0 min 0 W/m 16,1 km/h (3 Bft) 97,87 %
21.12.2019 17:38 8,1 C 7,2 C 6,7 C 86 % 989,0 hPa 0,0 l/m 0 min 0 min 0 W/m 16,1 km/h (3 Bft) 97,87 %
21.12.2019 17:40 8,1 C 7,2 C 6,7 C 86 % 989,0 hPa 0,0 l/m 0 min 0 min 0 W/m 16,1 km/h (3 Bft) 100,00 %
21.12.2019 17:42 8,1 C 7,2 C 6,7 C 86 % 989,0 hPa 0,0 l/m 0 min 0 min 0 W/m 16,1 km/h (3 Bft) 100,00 %
21.12.2019 17:44 8,1 C 7,2 C 6,7 C 86 % 989,1 hPa 0,0 l/m 0 min 0 min 0 W/m 16,1 km/h (3 Bft) 97,87 %
21.12.2019 17:46 8,1 C 7,2 C 6,7 C 86 % 989,1 hPa 0,0 l/m 0 min 0 min 0 W/m 16,1 km/h (3 Bft) 100,00 %
21.12.2019 17:48 8,1 C 7,2 C 6,7 C 86 % 989,0 hPa 0,0 l/m 0 min 0 min 0 W/m 16,1 km/h (3 Bft) 93,62 %
21.12.2019 17:50 8,0 C 7,2 C 6,7 C 86 % 989,0 hPa 0,0 l/m 0 min 0 min 0 W/m 16,1 km/h (3 Bft) 100,00 %
21.12.2019 17:52 8,0 C 7,2 C 6,7 C 86 % 989,0 hPa 0,0 l/m 0 min 0 min 0 W/m 19,3 km/h (3 Bft) 100,00 %
21.12.2019 17:54 8,0 C 7,2 C 6,7 C 86 % 988,9 hPa 0,0 l/m 0 min 0 min 0 W/m 16,1 km/h (3 Bft) 97,83 %
21.12.2019 17:56 7,9 C 7,2 C 6,7 C 86 % 989,0 hPa 0,0 l/m 0 min 0 min 0 W/m 19,3 km/h (3 Bft) 97,87 %
21.12.2019 17:58 7,9 C 7,2 C 6,7 C 86 % 988,8 hPa 0,0 l/m 0 min 0 min 0 W/m 16,1 km/h (3 Bft) 97,87 %
21.12.2019 18:00 7,9 C 7,2 C 6,7 C 86 % 988,7 hPa 0,0 l/m 0 min 0 min 0 W/m 16,1 km/h (3 Bft) 100,00 %
21.12.2019 18:02 7,9 C 7,2 C 6,7 C 86 % 988,7 hPa 0,0 l/m 0 min 0 min 0 W/m 19,3 km/h (3 Bft) 100,00 %
21.12.2019 18:04 7,9 C 7,2 C 6,1 C 85 % 988,6 hPa 0,0 l/m 0 min 0 min 0 W/m 19,3 km/h (3 Bft) 95,74 %
21.12.2019 18:08 7,8 C 6,7 C 6,1 C 85 % 988,4 hPa 0,0 l/m 0 min 0 min 0 W/m 22,5 km/h (4 Bft) 96,81 %
21.12.2019 18:10 7,8 C 6,7 C 6,1 C 85 % 988,2 hPa 0,0 l/m 0 min 0 min 0 W/m 19,3 km/h (3 Bft) 97,87 %
21.12.2019 18:12 7,8 C 6,7 C 6,1 C 85 % 988,1 hPa 0,0 l/m 0 min 0 min 0 W/m 19,3 km/h (3 Bft) 97,87 %
21.12.2019 18:14 7,8 C 6,7 C 6,1 C 85 % 988,1 hPa 0,0 l/m 0 min 0 min 0 W/m 22,5 km/h (4 Bft) 97,87 %
21.12.2019 18:16 7,7 C 6,7 C 6,1 C 85 % 988,1 hPa 0,0 l/m 0 min 0 min 0 W/m 16,1 km/h (3 Bft) 97,87 %
21.12.2019 18:18 7,7 C 6,7 C 6,1 C 85 % 988,1 hPa 0,0 l/m 0 min 0 min 0 W/m 19,3 km/h (3 Bft) 97,83 %
21.12.2019 18:20 7,7 C 6,7 C 6,1 C 85 % 988,0 hPa 0,0 l/m 0 min 0 min 0 W/m 19,3 km/h (3 Bft) 95,74 %
21.12.2019 18:22 7,6 C 6,1 C 5,6 C 85 % 988,0 hPa 0,0 l/m 0 min 0 min 0 W/m 16,1 km/h (3 Bft) 97,87 %
21.12.2019 18:24 7,6 C 6,1 C 5,6 C 86 % 988,0 hPa 0,0 l/m 0 min 0 min 0 W/m 12,9 km/h (3 Bft) 97,87 %
21.12.2019 18:26 7,6 C 6,1 C 5,6 C 86 % 988,1 hPa 0,0 l/m 0 min 0 min 0 W/m 19,3 km/h (3 Bft) 97,87 %
21.12.2019 18:28 7,5 C 6,1 C 5,6 C 85 % 988,1 hPa 0,0 l/m 0 min 0 min 0 W/m 16,1 km/h (3 Bft) 97,83 %
21.12.2019 18:30 7,5 C 6,1 C 5,6 C 86 % 988,1 hPa 0,0 l/m 0 min 0 min 0 W/m 19,3 km/h (3 Bft) 97,87 %
21.12.2019 18:32 7,4 C 6,1 C 5,6 C 86 % 988,1 hPa 0,0 l/m 0 min 0 min 0 W/m 22,5 km/h (4 Bft) 97,87 %
21.12.2019 18:34 7,4 C 6,1 C 5,6 C 86 % 988,0 hPa 0,0 l/m 0 min 0 min 0 W/m 19,3 km/h (3 Bft) 97,87 %
21.12.2019 18:36 7,3 C 6,1 C 5,6 C 86 % 988,0 hPa 0,0 l/m 0 min 0 min 0 W/m 22,5 km/h (4 Bft) 97,87 %
21.12.2019 18:38 7,3 C 6,1 C 5,6 C 86 % 987,9 hPa 0,0 l/m 0 min 0 min 0 W/m 22,5 km/h (4 Bft) 95,74 %
21.12.2019 18:40 7,2 C 6,1 C 5,6 C 86 % 987,9 hPa 0,0 l/m 0 min 0 min 0 W/m 19,3 km/h (3 Bft) 97,83 %
21.12.2019 18:42 7,2 C 6,1 C 5,6 C 86 % 987,8 hPa 0,0 l/m 0 min 0 min 0 W/m 22,5 km/h (4 Bft) 97,87 %
21.12.2019 18:44 7,2 C 6,1 C 5,6 C 87 % 987,9 hPa 0,0 l/m 0 min 0 min 0 W/m 22,5 km/h (4 Bft) 100,00 %
21.12.2019 18:46 7,1 C 6,1 C 5,6 C 87 % 987,9 hPa 0,0 l/m 0 min 0 min 0 W/m 22,5 km/h (4 Bft) 97,87 %
21.12.2019 18:48 7,1 C 6,1 C 5,6 C 87 % 987,9 hPa 0,0 l/m 0 min 0 min 0 W/m 22,5 km/h (4 Bft) 97,87 %
21.12.2019 18:50 7,1 C 6,1 C 5,6 C 87 % 987,9 hPa 0,0 l/m 0 min 0 min 0 W/m 19,3 km/h (3 Bft) 97,87 %
21.12.2019 18:52 7,1 C 6,1 C 5,0 C 87 % 987,9 hPa 0,0 l/m 0 min 0 min 0 W/m 12,9 km/h (3 Bft) 100,00 %
21.12.2019 18:54 7,0 C 6,1 C 5,0 C 87 % 987,8 hPa 0,0 l/m 0 min 0 min 0 W/m 22,5 km/h (4 Bft) 100,00 %
21.12.2019 18:56 6,9 C 6,1 C 5,0 C 87 % 987,8 hPa 0,0 l/m 0 min 0 min 0 W/m 22,5 km/h (4 Bft) 100,00 %
21.12.2019 18:58 6,9 C 6,1 C 5,0 C 87 % 987,8 hPa 0,0 l/m 0 min 0 min 0 W/m 19,3 km/h (3 Bft) 100,00 %
21.12.2019 19:00 6,9 C 6,1 C 5,0 C 88 % 987,7 hPa 0,0 l/m 0 min 0 min 0 W/m 22,5 km/h (4 Bft) 97,87 %
21.12.2019 19:02 6,9 C 5,6 C 5,0 C 88 % 987,7 hPa 0,0 l/m 0 min 0 min 0 W/m 16,1 km/h (3 Bft) 100,00 %
21.12.2019 19:04 6,8 C 5,6 C 5,0 C 88 % 987,7 hPa 0,0 l/m 0 min 0 min 0 W/m 22,5 km/h (4 Bft) 100,00 %
21.12.2019 19:06 6,8 C 5,6 C 5,0 C 88 % 987,6 hPa 0,0 l/m 0 min 0 min 0 W/m 16,1 km/h (3 Bft) 100,00 %
21.12.2019 19:08 6,8 C 5,6 C 5,0 C 88 % 987,7 hPa 0,0 l/m 0 min 0 min 0 W/m 16,1 km/h (3 Bft) 97,87 %
21.12.2019 19:10 6,8 C 5,6 C 5,0 C 88 % 987,6 hPa 0,0 l/m 0 min 0 min 0 W/m 22,5 km/h (4 Bft) 100,00 %
21.12.2019 19:12 6,7 C 5,6 C 5,0 C 88 % 987,6 hPa 0,0 l/m 0 min 0 min 0 W/m 19,3 km/h (3 Bft) 97,87 %
21.12.2019 19:14 6,7 C 5,6 C 5,0 C 88 % 987,5 hPa 0,0 l/m 0 min 0 min 0 W/m 16,1 km/h (3 Bft) 100,00 %
21.12.2019 19:16 6,7 C 5,6 C 5,0 C 88 % 987,5 hPa 0,0 l/m 0 min 0 min 0 W/m 16,1 km/h (3 Bft) 100,00 %
21.12.2019 19:18 6,7 C 6,1 C 5,0 C 88 % 987,5 hPa 0,0 l/m 0 min 0 min 0 W/m 25,7 km/h (4 Bft) 100,00 %
21.12.2019 19:20 6,7 C 6,1 C 5,6 C 88 % 987,5 hPa 0,0 l/m 0 min 0 min 0 W/m 38,6 km/h (5 Bft) 97,87 %
21.12.2019 19:22 6,7 C 6,1 C 5,6 C 89 % 987,4 hPa 0,0 l/m 0 min 0 min 0 W/m 12,9 km/h (3 Bft) 97,87 %
21.12.2019 19:24 6,7 C 6,1 C 5,6 C 89 % 987,4 hPa 0,0 l/m 0 min 0 min 0 W/m 25,7 km/h (4 Bft) 97,87 %
21.12.2019 19:26 6,7 C 6,1 C 5,6 C 88 % 987,4 hPa 0,0 l/m 0 min 0 min 0 W/m 22,5 km/h (4 Bft) 97,83 %
21.12.2019 19:28 6,7 C 6,1 C 5,6 C 89 % 987,4 hPa 0,0 l/m 0 min 0 min 0 W/m 22,5 km/h (4 Bft) 97,87 %
21.12.2019 19:30 6,7 C 6,1 C 5,6 C 89 % 987,4 hPa 0,0 l/m 0 min 0 min 0 W/m 19,3 km/h (3 Bft) 97,87 %
21.12.2019 19:32 6,8 C 6,7 C 5,6 C 89 % 987,3 hPa 0,0 l/m 0 min 0 min 0 W/m 22,5 km/h (4 Bft) 97,87 %
21.12.2019 19:34 6,8 C 6,7 C 6,1 C 89 % 987,3 hPa 0,0 l/m 0 min 0 min 0 W/m 29,0 km/h (5 Bft) 97,87 %
21.12.2019 19:36 6,8 C 6,7 C 6,1 C 89 % 987,3 hPa 0,0 l/m 0 min 0 min 0 W/m 19,3 km/h (3 Bft) 97,87 %
21.12.2019 19:38 6,9 C 6,7 C 6,1 C 88 % 987,3 hPa 0,0 l/m 0 min 0 min 0 W/m 22,5 km/h (4 Bft) 97,83 %
21.12.2019 19:40 6,9 C 6,7 C 6,1 C 88 % 987,3 hPa 0,0 l/m 0 min 0 min 0 W/m 16,1 km/h (3 Bft) 93,62 %
21.12.2019 19:42 6,9 C 6,7 C 6,1 C 88 % 987,3 hPa 0,0 l/m 0 min 0 min 0 W/m 22,5 km/h (4 Bft) 95,74 %
21.12.2019 19:44 7,0 C 6,7 C 6,1 C 88 % 987,3 hPa 0,0 l/m 0 min 0 min 0 W/m 25,7 km/h (4 Bft) 95,74 %
21.12.2019 19:46 7,1 C 6,7 C 6,1 C 88 % 987,2 hPa 0,0 l/m 0 min 0 min 0 W/m 25,7 km/h (4 Bft) 95,74 %
21.12.2019 19:48 7,1 C 6,7 C 6,1 C 88 % 987,2 hPa 0,0 l/m 0 min 0 min 0 W/m 29,0 km/h (5 Bft) 95,74 %
21.12.2019 19:50 7,1 C 6,7 C 6,1 C 88 % 987,2 hPa 0,0 l/m 0 min 0 min 0 W/m 29,0 km/h (5 Bft) 93,48 %
21.12.2019 19:52 7,1 C 6,7 C 6,1 C 88 % 987,1 hPa 0,0 l/m 0 min 0 min 0 W/m 19,3 km/h (3 Bft) 95,74 %
21.12.2019 19:54 7,2 C 6,7 C 6,1 C 87 % 987,1 hPa 0,0 l/m 0 min 0 min 0 W/m 25,7 km/h (4 Bft) 93,62 %
21.12.2019 19:56 7,2 C 6,7 C 6,1 C 88 % 987,1 hPa 0,0 l/m 0 min 0 min 0 W/m 19,3 km/h (3 Bft) 93,62 %
21.12.2019 19:58 7,2 C 6,7 C 6,1 C 87 % 987,1 hPa 0,0 l/m 0 min 0 min 0 W/m 29,0 km/h (5 Bft) 95,74 %
21.12.2019 20:00 7,2 C 6,7 C 6,1 C 87 % 987,0 hPa 0,0 l/m 0 min 0 min 0 W/m 22,5 km/h (4 Bft) 95,74 %
21.12.2019 20:02 7,3 C 6,7 C 6,1 C 87 % 986,9 hPa 0,0 l/m 0 min 0 min 0 W/m 25,7 km/h (4 Bft) 95,65 %
21.12.2019 20:04 7,3 C 6,7 C 6,1 C 87 % 987,0 hPa 0,0 l/m 0 min 0 min 0 W/m 29,0 km/h (5 Bft) 97,87 %
21.12.2019 20:06 7,3 C 6,7 C 6,1 C 87 % 986,9 hPa 0,0 l/m 0 min 0 min 0 W/m 25,7 km/h (4 Bft) 95,74 %
21.12.2019 20:08 7,3 C 6,7 C 6,1 C 87 % 987,0 hPa 0,0 l/m 0 min 0 min 0 W/m 25,7 km/h (4 Bft) 95,74 %
21.12.2019 20:10 7,3 C 6,7 C 6,1 C 87 % 987,0 hPa 0,0 l/m 0 min 0 min 0 W/m 29,0 km/h (5 Bft) 97,87 %
21.12.2019 20:12 7,4 C 6,7 C 6,1 C 87 % 986,9 hPa 0,0 l/m 0 min 0 min 0 W/m 35,4 km/h (5 Bft) 97,87 %
21.12.2019 20:14 7,4 C 6,7 C 6,1 C 87 % 986,8 hPa 0,0 l/m 0 min 0 min 0 W/m 25,7 km/h (4 Bft) 95,65 %
21.12.2019 20:16 7,4 C 6,7 C 6,1 C 86 % 986,8 hPa 0,0 l/m 0 min 0 min 0 W/m 25,7 km/h (4 Bft) 93,62 %
21.12.2019 20:18 7,4 C 6,7 C 6,1 C 86 % 986,8 hPa 0,0 l/m 0 min 0 min 0 W/m 22,5 km/h (4 Bft) 97,87 %
21.12.2019 20:20 7,4 C 6,7 C 6,1 C 86 % 986,7 hPa 0,0 l/m 0 min 0 min 0 W/m 19,3 km/h (3 Bft) 97,87 %
21.12.2019 20:22 7,4 C 6,7 C 5,6 C 86 % 986,6 hPa 0,0 l/m 0 min 0 min 0 W/m 22,5 km/h (4 Bft) 97,87 %
21.12.2019 20:24 7,4 C 6,7 C 6,1 C 86 % 986,6 hPa 0,0 l/m 0 min 0 min 0 W/m 22,5 km/h (4 Bft) 97,87 %
21.12.2019 20:26 7,4 C 6,7 C 5,6 C 86 % 986,5 hPa 0,0 l/m 0 min 0 min 0 W/m 19,3 km/h (3 Bft) 97,83 %
21.12.2019 20:28 7,3 C 6,7 C 5,6 C 86 % 986,5 hPa 0,0 l/m 0 min 0 min 0 W/m 29,0 km/h (5 Bft) 97,87 %
21.12.2019 20:30 7,3 C 6,7 C 5,6 C 86 % 986,5 hPa 0,0 l/m 0 min 0 min 0 W/m 22,5 km/h (4 Bft) 95,74 %
21.12.2019 20:32 7,3 C 6,7 C 5,6 C 86 % 986,5 hPa 0,0 l/m 0 min 0 min 0 W/m 22,5 km/h (4 Bft) 97,87 %
21.12.2019 20:34 7,3 C 6,7 C 5,6 C 86 % 986,4 hPa 0,0 l/m 0 min 0 min 0 W/m 29,0 km/h (5 Bft) 95,74 %
21.12.2019 20:36 7,3 C 6,7 C 5,6 C 86 % 986,4 hPa 0,0 l/m 0 min 0 min 0 W/m 19,3 km/h (3 Bft) 97,87 %
21.12.2019 20:38 7,3 C 6,7 C 5,6 C 86 % 986,4 hPa 0,0 l/m 0 min 0 min 0 W/m 25,7 km/h (4 Bft) 100,00 %
21.12.2019 20:40 7,3 C 6,7 C 5,6 C 86 % 986,5 hPa 0,0 l/m 0 min 0 min 0 W/m 19,3 km/h (3 Bft) 100,00 %
21.12.2019 20:42 7,3 C 6,7 C 5,6 C 86 % 986,4 hPa 0,0 l/m 0 min 0 min 0 W/m 29,0 km/h (5 Bft) 97,87 %
21.12.2019 20:44 7,3 C 6,7 C 6,1 C 86 % 986,3 hPa 0,0 l/m 0 min 0 min 0 W/m 22,5 km/h (4 Bft) 100,00 %
21.12.2019 20:46 7,3 C 6,7 C 6,1 C 86 % 986,3 hPa 0,0 l/m 0 min 0 min 0 W/m 35,4 km/h (5 Bft) 97,87 %
21.12.2019 20:48 7,3 C 6,7 C 6,1 C 86 % 986,1 hPa 0,0 l/m 0 min 0 min 0 W/m 25,7 km/h (4 Bft) 97,83 %
21.12.2019 20:50 7,3 C 6,7 C 6,1 C 86 % 985,9 hPa 0,0 l/m 0 min 0 min 0 W/m 19,3 km/h (3 Bft) 95,74 %
21.12.2019 20:52 7,3 C 6,7 C 6,1 C 86 % 985,9 hPa 0,0 l/m 0 min 0 min 0 W/m 22,5 km/h (4 Bft) 95,74 %
21.12.2019 20:54 7,3 C 6,7 C 6,1 C 86 % 985,8 hPa 0,0 l/m 0 min 0 min 0 W/m 35,4 km/h (5 Bft) 97,87 %
21.12.2019 20:56 7,4 C 6,7 C 6,1 C 86 % 985,8 hPa 0,0 l/m 0 min 0 min 0 W/m 19,3 km/h (3 Bft) 95,74 %
21.12.2019 20:58 7,4 C 6,7 C 6,1 C 86 % 985,7 hPa 0,0 l/m 0 min 0 min 0 W/m 22,5 km/h (4 Bft) 95,74 %
21.12.2019 21:00 7,4 C 6,7 C 6,1 C 85 % 985,7 hPa 0,0 l/m 0 min 0 min 0 W/m 29,0 km/h (5 Bft) 97,83 %
21.12.2019 21:02 7,4 C 6,7 C 6,1 C 85 % 985,7 hPa 0,0 l/m 0 min 0 min 0 W/m 22,5 km/h (4 Bft) 97,87 %
21.12.2019 21:04 7,4 C 6,7 C 6,1 C 85 % 985,7 hPa 0,0 l/m 0 min 0 min 0 W/m 35,4 km/h (5 Bft) 97,87 %
21.12.2019 21:06 7,4 C 6,7 C 6,1 C 85 % 985,6 hPa 0,0 l/m 0 min 0 min 0 W/m 22,5 km/h (4 Bft) 95,74 %
21.12.2019 21:08 7,4 C 6,7 C 6,1 C 85 % 985,6 hPa 0,0 l/m 0 min 0 min 0 W/m 22,5 km/h (4 Bft) 97,87 %
21.12.2019 21:10 7,4 C 6,7 C 6,1 C 85 % 985,5 hPa 0,0 l/m 0 min 0 min 0 W/m 25,7 km/h (4 Bft) 97,87 %
21.12.2019 21:12 7,4 C 6,7 C 5,6 C 85 % 985,6 hPa 0,0 l/m 0 min 0 min 0 W/m 29,0 km/h (5 Bft) 69,57 %
21.12.2019 21:14 7,4 C 6,7 C 5,6 C 85 % 985,5 hPa 0,0 l/m 0 min 0 min 0 W/m 19,3 km/h (3 Bft) 83,72 %
21.12.2019 21:16 7,4 C 6,7 C 5,6 C 85 % 985,5 hPa 0,0 l/m 0 min 0 min 0 W/m 25,7 km/h (4 Bft) 97,87 %
21.12.2019 21:18 7,3 C 6,7 C 5,6 C 85 % 985,5 hPa 0,0 l/m 0 min 0 min 0 W/m 25,7 km/h (4 Bft) 97,87 %
21.12.2019 21:20 7,3 C 6,7 C 6,1 C 85 % 985,4 hPa 0,0 l/m 0 min 0 min 0 W/m 22,5 km/h (4 Bft) 97,87 %
21.12.2019 21:22 7,4 C 6,7 C 6,1 C 85 % 985,4 hPa 0,0 l/m 0 min 0 min 0 W/m 25,7 km/h (4 Bft) 97,87 %
21.12.2019 21:24 7,3 C 6,7 C 6,1 C 85 % 985,5 hPa 0,0 l/m 0 min 0 min 0 W/m 16,1 km/h (3 Bft) 97,83 %
21.12.2019 21:26 7,3 C 6,7 C 6,1 C 85 % 985,5 hPa 0,0 l/m 0 min 0 min 0 W/m 29,0 km/h (5 Bft) 97,87 %
21.12.2019 21:28 7,3 C 6,7 C 6,1 C 85 % 985,5 hPa 0,0 l/m 0 min 0 min 0 W/m 22,5 km/h (4 Bft) 95,74 %
21.12.2019 21:30 7,3 C 6,7 C 6,1 C 85 % 985,4 hPa 0,0 l/m 0 min 0 min 0 W/m 16,1 km/h (3 Bft) 95,74 %
21.12.2019 21:32 7,3 C 6,7 C 6,1 C 85 % 985,3 hPa 0,0 l/m 0 min 0 min 0 W/m 25,7 km/h (4 Bft) 95,74 %
21.12.2019 21:34 7,3 C 6,7 C 6,1 C 85 % 985,4 hPa 0,0 l/m 0 min 0 min 0 W/m 29,0 km/h (5 Bft) 97,87 %
21.12.2019 21:36 7,4 C 6,7 C 6,1 C 85 % 985,3 hPa 0,0 l/m 0 min 0 min 0 W/m 25,7 km/h (4 Bft) 95,65 %
21.12.2019 21:38 7,4 C 6,7 C 6,1 C 85 % 985,3 hPa 0,0 l/m 0 min 0 min 0 W/m 22,5 km/h (4 Bft) 100,00 %
21.12.2019 21:40 7,4 C 6,7 C 6,1 C 85 % 985,3 hPa 0,0 l/m 0 min 0 min 0 W/m 22,5 km/h (4 Bft) 100,00 %
21.12.2019 21:42 7,4 C 6,7 C 6,1 C 85 % 985,3 hPa 0,0 l/m 0 min 0 min 0 W/m 25,7 km/h (4 Bft) 97,87 %
21.12.2019 21:44 7,4 C 6,7 C 6,1 C 85 % 985,2 hPa 0,0 l/m 0 min 0 min 0 W/m 25,7 km/h (4 Bft) 100,00 %
21.12.2019 21:46 7,4 C 6,7 C 6,1 C 85 % 985,2 hPa 0,0 l/m 0 min 0 min 0 W/m 19,3 km/h (3 Bft) 97,83 %
21.12.2019 21:48 7,4 C 7,2 C 6,1 C 85 % 985,2 hPa 0,0 l/m 0 min 0 min 0 W/m 35,4 km/h (5 Bft) 97,87 %
21.12.2019 21:50 7,5 C 7,2 C 6,1 C 85 % 985,1 hPa 0,0 l/m 0 min 0 min 0 W/m 29,0 km/h (5 Bft) 100,00 %
21.12.2019 21:52 7,5 C 7,2 C 6,7 C 85 % 985,1 hPa 0,0 l/m 0 min 0 min 0 W/m 25,7 km/h (4 Bft) 97,87 %
21.12.2019 21:54 7,6 C 7,2 C 6,1 C 85 % 985,0 hPa 0,0 l/m 0 min 0 min 0 W/m 25,7 km/h (4 Bft) 100,00 %
21.12.2019 21:56 7,6 C 7,2 C 6,1 C 85 % 985,0 hPa 0,0 l/m 0 min 0 min 0 W/m 16,1 km/h (3 Bft) 97,87 %
21.12.2019 21:58 7,6 C 6,7 C 6,1 C 85 % 985,0 hPa 0,0 l/m 0 min 0 min 0 W/m 16,1 km/h (3 Bft) 97,83 %
21.12.2019 22:00 7,6 C 6,7 C 6,1 C 85 % 985,0 hPa 0,0 l/m 0 min 0 min 0 W/m 16,1 km/h (3 Bft) 97,87 %
21.12.2019 22:02 7,6 C 7,2 C 6,1 C 85 % 984,9 hPa 0,0 l/m 0 min 0 min 0 W/m 29,0 km/h (5 Bft) 97,87 %
21.12.2019 22:04 7,6 C 7,2 C 6,1 C 84 % 984,8 hPa 0,0 l/m 0 min 0 min 0 W/m 25,7 km/h (4 Bft) 97,87 %
21.12.2019 22:06 7,6 C 7,2 C 6,1 C 84 % 984,7 hPa 0,0 l/m 0 min 0 min 0 W/m 19,3 km/h (3 Bft) 97,87 %
21.12.2019 22:08 7,6 C 7,2 C 6,1 C 84 % 984,7 hPa 0,0 l/m 0 min 0 min 0 W/m 29,0 km/h (5 Bft) 97,87 %
21.12.2019 22:10 7,6 C 7,2 C 6,1 C 84 % 984,7 hPa 0,0 l/m 0 min 0 min 0 W/m 25,7 km/h (4 Bft) 97,83 %
21.12.2019 22:12 7,6 C 7,2 C 6,1 C 84 % 984,7 hPa 0,0 l/m 0 min 0 min 0 W/m 25,7 km/h (4 Bft) 97,87 %
21.12.2019 22:14 7,6 C 7,2 C 6,1 C 84 % 984,6 hPa 0,0 l/m 0 min 0 min 0 W/m 25,7 km/h (4 Bft) 97,87 %
21.12.2019 22:16 7,7 C 7,2 C 6,1 C 84 % 984,7 hPa 0,0 l/m 0 min 0 min 0 W/m 22,5 km/h (4 Bft) 93,62 %
21.12.2019 22:18 7,7 C 7,2 C 6,1 C 84 % 984,6 hPa 0,0 l/m 0 min 0 min 0 W/m 22,5 km/h (4 Bft) 97,87 %
21.12.2019 22:20 7,7 C 7,2 C 6,1 C 84 % 984,6 hPa 0,0 l/m 0 min 0 min 0 W/m 29,0 km/h (5 Bft) 97,87 %
21.12.2019 22:22 7,7 C 7,2 C 6,1 C 84 % 984,6 hPa 0,0 l/m 0 min 0 min 0 W/m 29,0 km/h (5 Bft) 97,83 %
21.12.2019 22:24 7,7 C 6,7 C 6,1 C 84 % 984,6 hPa 0,0 l/m 0 min 0 min 0 W/m 22,5 km/h (4 Bft) 97,87 %
21.12.2019 22:26 7,7 C 6,7 C 6,1 C 84 % 984,5 hPa 0,0 l/m 0 min 0 min 0 W/m 22,5 km/h (4 Bft) 97,87 %
21.12.2019 22:28 7,7 C 6,7 C 6,1 C 84 % 984,4 hPa 0,0 l/m 0 min 0 min 0 W/m 22,5 km/h (4 Bft) 95,74 %
21.12.2019 22:30 7,6 C 6,7 C 6,1 C 84 % 984,4 hPa 0,0 l/m 0 min 0 min 0 W/m 25,7 km/h (4 Bft) 97,87 %
21.12.2019 22:32 7,6 C 6,7 C 6,1 C 84 % 984,3 hPa 0,0 l/m 0 min 0 min 0 W/m 29,0 km/h (5 Bft) 97,83 %
21.12.2019 22:34 7,6 C 6,7 C 6,1 C 84 % 984,3 hPa 0,0 l/m 0 min 0 min 0 W/m 29,0 km/h (5 Bft) 95,74 %
21.12.2019 22:36 7,6 C 6,7 C 6,1 C 84 % 984,2 hPa 0,0 l/m 0 min 0 min 0 W/m 25,7 km/h (4 Bft) 93,62 %
21.12.2019 22:38 7,6 C 6,7 C 6,1 C 84 % 984,2 hPa 0,0 l/m 0 min 0 min 0 W/m 25,7 km/h (4 Bft) 97,87 %
21.12.2019 22:40 7,6 C 6,7 C 6,1 C 84 % 984,1 hPa 0,0 l/m 0 min 0 min 0 W/m 22,5 km/h (4 Bft) 53,33 %
21.12.2019 22:42 7,6 C 6,7 C 6,1 C 84 % 984,0 hPa 0,0 l/m 0 min 0 min 0 W/m 35,4 km/h (5 Bft) 97,87 %
21.12.2019 22:44 7,6 C 6,7 C 6,1 C 84 % 984,0 hPa 0,0 l/m 0 min 0 min 0 W/m 29,0 km/h (5 Bft) 100,00 %
21.12.2019 22:46 7,6 C 6,7 C 6,1 C 84 % 983,9 hPa 0,0 l/m 0 min 0 min 0 W/m 25,7 km/h (4 Bft) 100,00 %
21.12.2019 22:48 7,6 C 6,7 C 6,1 C 84 % 983,8 hPa 0,0 l/m 0 min 0 min 0 W/m 29,0 km/h (5 Bft) 100,00 %
21.12.2019 22:50 7,6 C 6,7 C 6,1 C 84 % 983,8 hPa 0,0 l/m 0 min 0 min 0 W/m 29,0 km/h (5 Bft) 97,87 %
21.12.2019 22:52 7,6 C 7,2 C 6,1 C 84 % 983,8 hPa 0,0 l/m 0 min 0 min 0 W/m 29,0 km/h (5 Bft) 100,00 %
21.12.2019 22:54 7,6 C 6,7 C 6,1 C 84 % 983,7 hPa 0,0 l/m 0 min 0 min 0 W/m 25,7 km/h (4 Bft) 100,00 %
21.12.2019 22:56 7,6 C 6,7 C 6,1 C 84 % 983,8 hPa 0,0 l/m 0 min 0 min 0 W/m 25,7 km/h (4 Bft) 100,00 %
21.12.2019 22:58 7,6 C 6,7 C 6,1 C 84 % 983,7 hPa 0,0 l/m 0 min 0 min 0 W/m 25,7 km/h (4 Bft) 93,62 %
21.12.2019 23:00 7,6 C 6,7 C 6,1 C 84 % 983,7 hPa 0,0 l/m 0 min 0 min 0 W/m 35,4 km/h (5 Bft) 100,00 %
21.12.2019 23:02 7,6 C 6,7 C 6,1 C 84 % 983,7 hPa 0,0 l/m 0 min 0 min 0 W/m 25,7 km/h (4 Bft) 97,87 %
21.12.2019 23:04 7,6 C 6,7 C 6,1 C 84 % 983,7 hPa 0,0 l/m 0 min 0 min 0 W/m 32,2 km/h (5 Bft) 97,87 %
21.12.2019 23:06 7,6 C 6,7 C 6,1 C 84 % 983,8 hPa 0,0 l/m 0 min 0 min 0 W/m 22,5 km/h (4 Bft) 100,00 %
21.12.2019 23:08 7,6 C 6,7 C 6,1 C 84 % 983,7 hPa 0,0 l/m 0 min 0 min 0 W/m 25,7 km/h (4 Bft) 95,65 %
21.12.2019 23:10 7,6 C 6,7 C 6,1 C 84 % 983,7 hPa 0,0 l/m 0 min 0 min 0 W/m 25,7 km/h (4 Bft) 97,87 %
21.12.2019 23:12 7,6 C 6,7 C 6,1 C 84 % 983,7 hPa 0,0 l/m 0 min 0 min 0 W/m 22,5 km/h (4 Bft) 97,87 %
21.12.2019 23:14 7,6 C 6,7 C 6,1 C 84 % 983,7 hPa 0,0 l/m 0 min 0 min 0 W/m 25,7 km/h (4 Bft) 97,87 %
21.12.2019 23:16 7,6 C 6,7 C 6,1 C 84 % 983,5 hPa 0,0 l/m 0 min 0 min 0 W/m 35,4 km/h (5 Bft) 97,87 %
21.12.2019 23:18 7,6 C 6,7 C 6,1 C 84 % 983,5 hPa 0,0 l/m 0 min 0 min 0 W/m 25,7 km/h (4 Bft) 97,87 %
21.12.2019 23:20 7,6 C 6,7 C 6,1 C 84 % 983,4 hPa 0,0 l/m 0 min 0 min 0 W/m 25,7 km/h (4 Bft) 95,65 %
21.12.2019 23:22 7,6 C 6,7 C 6,1 C 84 % 983,3 hPa 0,0 l/m 0 min 0 min 0 W/m 35,4 km/h (5 Bft) 97,87 %
21.12.2019 23:24 7,6 C 6,7 C 6,1 C 84 % 983,4 hPa 0,0 l/m 0 min 0 min 0 W/m 22,5 km/h (4 Bft) 97,87 %
21.12.2019 23:26 7,5 C 6,7 C 6,1 C 85 % 983,4 hPa 0,0 l/m 0 min 0 min 0 W/m 19,3 km/h (3 Bft) 97,87 %
21.12.2019 23:28 7,5 C 6,7 C 6,1 C 85 % 983,4 hPa 0,0 l/m 0 min 0 min 0 W/m 35,4 km/h (5 Bft) 95,74 %
21.12.2019 23:30 7,5 C 6,7 C 6,1 C 85 % 983,4 hPa 0,0 l/m 0 min 0 min 0 W/m 22,5 km/h (4 Bft) 95,74 %
21.12.2019 23:32 7,5 C 6,7 C 6,1 C 85 % 983,4 hPa 0,0 l/m 0 min 0 min 0 W/m 25,7 km/h (4 Bft) 95,65 %
21.12.2019 23:34 7,6 C 6,7 C 6,1 C 85 % 983,4 hPa 0,0 l/m 0 min 0 min 0 W/m 22,5 km/h (4 Bft) 97,87 %
21.12.2019 23:36 7,6 C 6,7 C 6,1 C 85 % 983,4 hPa 0,0 l/m 0 min 0 min 0 W/m 25,7 km/h (4 Bft) 97,87 %
21.12.2019 23:38 7,6 C 6,7 C 6,1 C 85 % 983,4 hPa 0,0 l/m 0 min 0 min 0 W/m 38,6 km/h (5 Bft) 95,74 %
21.12.2019 23:40 7,5 C 6,7 C 6,1 C 85 % 983,4 hPa 0,0 l/m 0 min 0 min 0 W/m 22,5 km/h (4 Bft) 95,74 %
21.12.2019 23:42 7,6 C 6,7 C 6,1 C 85 % 983,3 hPa 0,0 l/m 0 min 0 min 0 W/m 35,4 km/h (5 Bft) 93,62 %
21.12.2019 23:44 7,5 C 6,7 C 6,1 C 85 % 983,3 hPa 0,0 l/m 0 min 0 min 0 W/m 22,5 km/h (4 Bft) 95,65 %
21.12.2019 23:46 7,5 C 6,7 C 6,1 C 85 % 983,3 hPa 0,0 l/m 0 min 0 min 0 W/m 19,3 km/h (3 Bft) 95,74 %
21.12.2019 23:48 7,5 C 6,7 C 6,1 C 85 % 983,2 hPa 0,0 l/m 0 min 0 min 0 W/m 22,5 km/h (4 Bft) 95,74 %
21.12.2019 23:50 7,5 C 6,7 C 6,1 C 85 % 983,3 hPa 0,0 l/m 0 min 0 min 0 W/m 25,7 km/h (4 Bft) 95,74 %
21.12.2019 23:52 7,5 C 6,7 C 6,1 C 85 % 983,3 hPa 0,0 l/m 0 min 0 min 0 W/m 25,7 km/h (4 Bft) 91,49 %
21.12.2019 23:54 7,5 C 6,7 C 6,1 C 85 % 983,2 hPa 0,0 l/m 0 min 0 min 0 W/m 35,4 km/h (5 Bft) 95,74 %
21.12.2019 23:56 7,5 C 6,7 C 6,1 C 85 % 983,3 hPa 0,0 l/m 0 min 0 min 0 W/m 35,4 km/h (5 Bft) 95,65 %
21.12.2019 23:58 7,5 C 6,7 C 6,1 C 85 % 983,3 hPa 0,0 l/m 0 min 0 min 0 W/m 38,6 km/h (5 Bft) 95,74 %
_ Min-Zeit 07:16 06:38 06:26 15:28 23:48 - - - - 06:32 22:40
Minimum _ 5,5 C 4,4 C 3,9 C 82 % 983,2 hPa - - - - 0,0 km/h (0 Bft) 53,33 %
_ Max-Zeit 15:02 13:42 14:00 10:12 03:44 00:00 09:56 12:08 10:22 19:20 00:44
Maximum _ 9,7 C 10,0 C 8,9 C 95 % 992,5 hPa 0,0 l/m 2 min 4 min 188 W/m 38,6 km/h
O (5 Bft)
100,00 %
Durchschnitt _ 7,5 C 6,9 C 6,1 C 88 % 989,8 hPa #0,0 l/m #50 min. #4 min. 60 W/m 18,3 km/h (3 Bft) 97,16 %
© 2019 W. Hausmann